GFSCGP_prec_cloud_006.txt.gz
Cloud_Cover
0 0 0 0 0 0 0 64 14 100 77 100 100 100 100 10 8 6 0 0 0 0 0 0 0 0 0 0 0 0 0 0 2 0 0 0 0 45 82 4 86 3 12 0
0 0 0 0 0 0 0 16 27 100 98 100 100 8 0 36 2 0 0 0 0 0 0 0 0 0 0 0 0 0 0 0 0 0 0 0 14 0 0 15 46 0 0 0
0 0 0 0 0 0 0 0 21 86 100 68 99 31 100 100 7 0 0 0 0 0 0 0 0 0 0 0 0 0 0 0 0 0 0 0 1 33 99 34 40 0 21 0
0 0 0 0 0 0 0 0 3 24 100 62 91 29 40 97 70 0 0 0 0 0 0 0 0 0 0 0 0 0 0 0 0 0 0 0 0 0 3 0 54 0 0 0
0 0 0 0 5 0 0 0 0 5 98 41 42 11 77 100 98 42 2 0 0 0 0 0 0 0 0 0 0 0 0 0 0 0 0 0 0 0 0 0 1 46 0 0
0 0 0 0 1 0 0 0 0 2 19 89 100 26 100 98 100 100 98 5 0 0 0 0 0 0 0 0 0 0 0 0 0 0 0 0 0 0 41 62 36 0 0 0
0 0 0 0 0 0 0 0 0 0 3 1 90 57 95 76 94 82 96 100 36 0 0 0 0 0 0 0 0 0 0 0 0 0 0 0 0 0 0 0 0 0 0 0
0 0 0 0 0 0 1 0 0 0 0 2 0 42 52 100 24 61 95 91 99 0 1 0 0 0 0 0 0 0 0 0 0 0 0 0 0 0 0 0 0 0 0 0
0 0 0 0 0 0 0 0 0 0 0 3 30 61 7 15 88 74 78 93 100 99 5 0 0 0 0 0 0 0 0 0 0 0 0 0 0 0 0 0 0 0 0 0
0 0 0 0 0 0 0 0 0 0 0 0 2 6 99 10 2 6 28 100 100 77 0 4 0 0 0 0 0 0 0 0 0 0 0 0 0 0 0 0 0 0 0 0
0 0 0 0 0 0 0 0 0 0 0 0 0 4 2 68 80 73 1 68 94 12 14 3 0 0 0 0 0 0 0 0 0 0 0 0 0 0 0 0 0 0 0 0
5 0 0 0 0 0 0 0 0 0 0 0 0 0 5 100 100 100 64 0 0 0 82 42 1 0 0 0 0 0 0 0 0 0 0 0 0 0 0 0 0 0 0 0
11 5 0 0 0 0 0 0 0 0 0 0 0 0 0 95 13 90 80 12 3 18 98 5 64 0 0 0 0 0 0 0 0 0 0 0 0 0 0 0 0 0 0 0
89 5 0 0 0 2 0 0 0 0 0 0 0 1 2 100 7 86 85 76 31 3 100 39 81 3 0 0 0 0 0 0 0 0 0 0 0 0 0 0 0 0 0 0
5 5 0 0 0 4 0 0 0 0 0 0 0 0 80 5 97 86 51 96 44 0 12 73 22 1 0 0 0 0 0 0 0 0 0 0 0 0 0 0 0 0 0 2
5 2 5 0 0 0 74 5 2 0 0 0 0 0 0 4 9 100 100 51 5 0 0 3 31 51 0 0 0 0 0 0 0 0 0 0 0 0 0 0 0 0 4 50
8 0 1 0 0 27 85 0 52 16 0 0 0 0 0 38 100 90 100 100 33 91 0 0 0 0 0 0 0 0 0 0 0 0 0 0 0 0 0 0 0 0 10 58
88 5 39 4 56 72 2 3 10 4 12 0 0 0 0 0 4 16 8 100 99 92 3 0 0 0 0 0 0 0 0 0 0 0 0 0 0 0 0 0 0 13 60 80
100 99 100 98 90 24 5 7 96 96 2 0 4 1 0 0 0 3 5 100 20 6 80 41 0 0 0 0 0 0 0 0 0 0 0 0 0 0 0 0 25 40 86 100
100 100 100 100 79 38 74 100 49 93 0 0 1 0 0 1 30 0 0 0 20 63 95 5 0 0 0 4 0 0 0 0 2 0 0 5 5 5 48 49 24 43 100 69
100 100 100 100 100 100 100 100 74 82 2 4 0 0 0 0 0 0 0 14 0 36 98 0 22 0 0 0 0 0 0 0 0 5 0 4 11 51 39 24 95 98 14 99
100 100 100 100 100 100 100 100 100 100 98 76 1 0 0 0 0 16 0 7 0 4 5 2 96 5 0 0 0 0 0 0 0 1 0 2 40 12 96 100 98 100 100 100
100 100 100 100 100 100 100 95 100 100 25 5 0 0 0 0 0 0 0 0 3 96 1 0 0 0 5 4 0 0 0 0 0 0 1 28 24 93 100 46 98 100 100 100
100 100 100 100 100 100 97 62 12 5 3 3 0 0 0 0 1 0 0 0 1 72 2 0 0 0 0 5 7 11 12 10 5 5 21 100 99 83 98 82 95 49 100 84
100 100 100 100 100 82 97 78 14 5 68 2 0 0 0 33 46 0 0 0 0 0 0 0 0 0 0 0 0 1 4 8 99 100 97 66 92 100 94 100 100 100 100 95
100 100 100 100 100 100 100 10 5 91 62 3 0 0 2 100 100 100 41 9 0 51 33 13 52 1 0 3 82 77 26 100 100 86 83 100 81 100 100 51 67 100 95 22

GFSCGP_prec_cloud_009.txt.gz
Cloud_Cover
0 0 0 0 0 0 0 0 0 5 90 99 94 46 21 88 0 0 0 0 0 0 0 0 0 0 0 0 0 0 0 0 0 0 0 1 5 0 0 0 0 0 0 0
0 0 0 0 0 0 0 0 0 39 100 100 60 50 89 24 1 0 0 0 0 0 0 0 0 0 0 0 0 0 0 0 0 0 0 0 0 0 0 0 0 0 0 0
0 0 0 0 0 0 0 0 0 32 68 100 82 28 2 60 22 48 0 0 0 0 0 0 0 0 0 0 0 0 0 0 0 0 0 0 0 0 0 0 0 91 3 0
0 0 0 0 0 0 0 0 0 5 80 74 94 55 75 100 20 20 72 8 0 0 0 0 0 0 0 0 0 0 0 0 0 0 0 0 0 0 0 0 0 0 0 0
0 0 0 0 0 0 0 0 0 3 89 61 53 99 5 100 59 100 5 16 2 0 0 0 0 0 0 0 0 0 0 0 0 0 0 0 0 0 0 0 0 0 0 0
0 0 0 0 0 0 0 0 0 0 73 74 5 60 4 82 11 43 6 5 5 1 0 0 0 0 0 0 0 0 0 0 0 0 0 0 0 0 0 0 0 0 0 0
0 0 0 0 0 0 0 0 0 0 0 0 4 5 0 98 100 17 5 10 5 5 20 0 0 0 0 0 0 0 0 0 0 0 0 0 0 0 0 0 0 0 0 0
0 0 0 0 0 0 0 0 0 0 0 0 0 0 0 4 84 85 19 89 18 59 100 4 2 0 0 0 0 0 0 0 0 0 0 0 0 0 0 0 0 0 0 0
0 0 0 0 0 0 0 0 0 0 0 0 0 0 0 9 64 45 72 30 3 94 100 14 7 11 0 0 0 0 0 0 0 0 0 0 0 0 0 0 0 0 0 0
0 0 0 0 0 0 0 0 0 0 0 0 0 0 0 0 4 4 0 63 48 42 65 13 5 4 0 0 0 0 0 0 0 0 0 0 0 0 0 0 0 0 0 0
0 0 0 0 0 0 0 0 0 0 0 0 1 0 0 0 58 90 27 5 31 94 74 17 0 3 0 0 0 0 0 0 0 0 0 0 0 0 0 0 0 0 0 0
0 0 0 0 0 0 0 0 0 0 0 0 0 1 0 8 34 91 10 100 100 4 0 0 1 0 0 0 0 0 0 0 0 0 0 0 0 0 0 0 0 0 0 0
0 0 0 5 80 40 1 0 0 0 0 0 0 1 5 2 7 86 8 97 42 98 24 4 5 0 0 0 0 0 0 0 0 0 0 0 0 0 0 0 0 0 0 0
3 0 2 2 5 2 4 17 0 0 0 0 0 0 0 13 20 61 94 41 100 100 70 4 0 0 0 5 0 0 0 0 0 0 0 0 0 0 0 0 0 0 0 0
43 0 0 2 5 2 4 2 2 0 0 0 0 0 0 0 31 84 91 85 90 99 55 89 4 5 4 0 0 0 0 0 0 0 0 0 0 0 0 0 0 0 0 0
21 0 0 0 13 14 0 0 0 5 2 0 0 0 0 0 3 55 100 100 25 68 78 100 7 3 0 0 0 0 0 0 0 0 0 0 0 0 0 0 0 0 0 0
42 0 2 0 5 6 0 0 1 0 0 0 0 0 0 0 0 0 100 38 97 87 99 32 66 20 1 0 0 0 0 0 0 0 0 0 0 0 0 0 0 0 0 2
67 8 0 0 5 64 8 5 0 0 1 2 0 0 0 0 0 0 15 99 11 1 17 100 100 100 10 0 0 0 0 0 0 0 0 0 0 0 0 0 0 5 5 4
100 100 11 2 0 0 0 5 6 88 4 100 1 3 0 0 0 0 0 32 11 0 13 82 73 52 62 18 5 1 5 2 0 5 5 4 0 1 1 2 5 5 10 43
100 100 100 30 4 0 4 20 100 7 5 5 2 5 5 1 4 0 0 0 0 0 0 4 38 100 100 50 5 3 0 0 0 0 3 2 5 5 4 1 5 23 32 100
100 100 100 25 4 9 4 91 100 100 5 2 4 5 2 0 0 0 0 0 0 0 0 3 1 5 2 76 5 3 0 0 0 0 0 0 0 0 2 13 16 70 63 27
100 100 100 100 91 100 100 100 100 55 2 3 5 25 11 2 0 0 0 0 0 0 0 0 5 5 100 18 0 45 1 0 0 0 0 8 39 47 16 5 5 64 22 88
100 100 100 100 99 97 100 100 100 37 5 7 83 89 62 60 47 1 0 0 0 0 0 0 0 70 24 92 2 0 0 4 0 15 72 85 63 52 16 21 36 29 34 62
100 100 100 100 100 62 84 78 6 98 39 100 100 100 100 100 91 2 0 0 0 0 0 0 0 0 2 99 32 5 2 0 24 95 95 98 100 66 35 10 17 69 7 39
100 100 100 100 100 100 100 100 100 75 62 100 100 100 100 72 4 0 0 0 0 62 62 21 0 27 83 54 73 90 55 9 100 90 82 100 100 68 100 86 74 89 89 36
100 100 100 100 100 100 98 100 100 100 99 100 100 100 100 4 0 0 0 7 59 100 100 100 100 64 67 80 10 38 100 24 97 100 100 100 100 99 39 54 100 99 58 5

GFSCGP_prec_cloud_012.txt.gz
Cloud_Cover
0 0 0 0 0 0 0 0 0 0 64 23 12 5 100 5 5 11 0 0 0 0 0 0 0 0 0 0 0 0 5 0 0 0 2 4 5 0 0 0 0 0 0 0
0 0 0 0 0 0 0 0 0 0 4 5 88 12 62 5 51 5 2 0 0 0 0 0 0 0 0 0 0 0 0 0 0 0 0 0 0 0 0 0 0 0 0 0
0 0 0 0 0 0 0 0 0 0 5 4 8 98 58 45 26 5 0 1 0 0 0 0 0 0 0 0 0 0 0 0 0 0 0 0 0 0 0 0 0 0 0 0
0 0 0 0 0 0 0 0 0 4 4 5 51 95 58 62 20 12 1 0 0 0 0 0 0 0 0 0 0 0 0 0 0 0 0 0 0 0 0 0 0 0 73 14
0 0 0 0 0 0 0 0 0 3 34 51 10 51 1 99 4 5 2 1 32 0 0 0 0 0 0 0 0 0 0 0 0 0 0 0 0 0 0 0 0 0 0 0
0 0 0 0 0 0 0 0 0 3 59 38 1 3 0 0 2 4 5 5 5 1 0 0 0 0 0 0 0 0 0 0 0 0 0 0 0 0 0 0 0 0 0 0
0 0 0 0 0 0 0 0 0 0 2 5 0 0 0 0 2 2 65 100 62 8 67 0 2 0 0 0 0 0 0 0 0 0 0 0 0 0 0 0 0 0 0 7
0 0 0 0 0 0 0 0 0 0 0 0 0 0 0 0 0 5 4 5 4 2 24 4 5 2 0 0 0 0 0 0 0 0 0 0 0 0 0 0 0 0 0 0
0 0 0 0 0 0 0 0 0 0 0 0 0 0 0 0 5 5 3 5 1 0 22 69 98 6 0 0 0 0 0 0 0 0 0 0 0 0 0 0 0 0 0 0
0 0 0 0 0 0 0 0 0 0 0 0 0 0 4 0 0 5 5 0 0 3 1 71 78 99 95 5 0 0 0 0 0 0 0 0 0 0 0 0 0 0 0 0
0 0 0 0 0 0 0 0 0 0 0 0 0 0 0 0 0 0 0 5 5 0 0 2 73 95 61 49 0 0 0 0 0 0 0 0 0 0 0 0 0 0 0 0
0 0 0 0 0 0 0 0 0 0 0 0 0 0 0 0 0 3 34 5 5 82 12 5 3 91 4 5 1 0 0 0 0 0 0 0 0 0 0 0 0 0 0 0
2 2 2 5 5 6 0 4 0 0 0 0 0 0 0 0 0 5 0 4 3 89 44 100 31 5 14 3 0 0 0 0 0 0 0 0 0 0 0 0 0 0 0 0
0 5 7 95 50 7 1 1 2 1 20 5 1 0 0 0 0 0 0 0 35 32 94 83 100 26 5 52 0 0 0 0 0 0 0 0 0 0 0 0 0 0 0 0
0 0 5 52 83 5 5 69 5 5 14 3 100 0 0 0 0 0 0 0 14 48 63 98 38 83 33 20 8 0 0 0 0 0 0 0 0 0 0 0 0 0 0 0
0 0 0 5 10 5 5 37 6 5 75 7 100 17 5 0 0 0 0 5 0 5 0 39 26 5 4 0 0 2 1 1 0 0 0 0 0 0 0 0 0 0 0 0
13 0 0 0 0 0 0 36 47 73 18 27 36 90 5 0 0 0 0 1 0 5 0 4 0 0 1 2 0 0 5 0 0 0 0 0 0 0 0 0 0 3 0 12
100 45 0 0 0 4 5 1 2 4 5 5 14 77 29 0 0 5 0 1 5 0 0 0 0 0 1 1 4 2 5 4 1 0 0 0 0 0 0 0 0 34 36 29
100 100 48 4 5 2 0 5 1 0 0 2 5 93 24 5 4 3 5 0 0 0 0 0 0 0 1 20 8 5 11 0 1 0 0 0 4 1 0 0 0 26 47 47
100 100 100 100 100 67 0 0 4 0 0 0 4 80 100 60 50 5 5 5 1 0 0 0 0 1 0 1 18 48 15 4 0 0 2 0 0 3 5 0 0 1 18 44
100 100 100 100 100 59 0 0 5 2 2 0 4 19 100 67 96 69 38 5 13 2 0 0 0 0 0 0 0 0 0 1 5 5 3 0 0 0 2 2 7 45 55 38
100 100 100 100 100 98 10 2 5 7 0 0 0 0 16 7 32 27 68 41 48 9 1 0 0 0 0 0 0 0 0 0 30 5 4 0 0 0 25 88 80 62 55 68
100 100 100 100 100 93 16 5 4 95 5 0 0 0 4 5 5 5 71 56 32 5 0 0 0 0 0 0 5 5 5 80 73 74 97 2 5 1 47 83 81 100 80 87
100 100 100 100 100 100 98 0 1 11 0 0 0 0 0 0 0 5 10 32 19 4 3 0 0 32 2 0 0 0 91 99 59 11 8 98 72 100 92 76 79 84 100 100
100 100 100 100 100 100 98 87 100 94 5 42 89 5 3 0 5 12 8 5 8 0 0 19 77 10 68 83 100 100 100 100 100 100 100 100 100 100 100 100 100 100 100 100
100 100 100 100 100 100 100 100 100 100 100 16 7 96 79 71 38 27 17 7 0 0 0 26 99 100 100 100 100 100 100 100 100 100 100 100 100 100 100 100 100 100 100 100

GFSCGP_prec_cloud_015.txt.gz
Cloud_Cover
0 0 0 0 0 0 0 0 0 0 2 0 45 0 0 64 100 99 5 0 0 0 0 0 0 0 0 0 0 0 3 5 0 0 0 0 0 0 0 0 0 0 0 0
0 0 0 0 0 0 0 0 0 3 6 0 1 4 1 5 100 90 5 2 0 0 0 0 0 0 0 0 0 0 3 0 0 0 0 0 0 0 0 0 0 0 0 0
0 0 0 0 0 0 0 0 0 0 5 3 5 2 2 1 64 20 5 33 0 0 0 0 0 0 0 0 0 0 0 0 0 0 0 1 0 0 1 0 0 0 0 0
0 0 0 0 0 0 0 0 0 3 24 41 0 0 0 2 5 0 5 3 0 0 0 0 0 0 0 0 0 0 0 0 0 0 0 0 0 0 0 0 0 0 0 0
0 0 0 0 0 0 0 0 0 0 5 5 0 0 0 0 0 3 5 5 100 7 0 0 0 0 0 0 0 0 0 0 0 0 0 0 0 0 0 0 0 0 0 0
0 0 0 0 0 0 0 0 0 0 5 2 0 0 0 0 0 0 0 0 5 44 5 0 0 0 0 0 0 0 0 0 0 0 0 0 0 0 2 0 0 0 7 3
0 0 0 0 0 0 0 0 0 0 0 8 0 0 0 0 0 0 0 5 1 4 7 51 4 25 0 0 0 0 0 0 0 0 0 0 0 0 0 0 0 0 11 21
0 0 0 0 0 0 0 0 0 0 0 0 0 1 0 0 0 0 4 21 5 39 5 12 68 5 4 0 0 0 0 0 0 0 0 0 0 0 0 0 0 0 0 0
0 0 0 0 0 0 0 0 0 0 0 0 0 2 0 0 0 0 5 5 79 100 60 94 5 5 5 2 4 0 0 0 0 0 0 0 0 0 0 0 0 0 0 0
0 0 0 0 0 0 0 0 0 0 0 0 0 0 0 0 0 0 2 0 0 1 3 5 5 5 5 11 2 0 0 0 0 0 0 0 0 0 0 0 0 0 0 0
0 0 0 0 0 0 0 0 0 0 0 0 0 0 0 0 0 0 0 0 0 0 0 0 5 83 85 45 76 1 0 0 0 0 0 0 0 0 0 0 0 0 0 0
0 4 4 0 0 0 0 0 0 0 0 0 0 0 0 0 0 0 0 0 0 0 0 0 63 43 5 17 43 5 70 63 0 0 0 0 0 0 0 0 0 0 0 0
0 0 5 0 0 0 1 0 3 7 0 4 0 0 0 0 0 0 0 1 1 0 0 0 8 16 5 5 5 2 43 6 0 0 0 0 0 0 0 0 0 0 0 0
0 0 5 4 0 0 3 5 4 2 5 34 40 3 0 0 0 0 0 0 0 2 0 0 0 0 5 5 5 1 0 0 3 0 0 0 0 0 0 0 0 0 0 0
0 0 2 5 0 7 6 5 5 5 95 14 100 29 2 0 0 0 0 0 0 0 4 4 1 0 62 14 6 49 4 1 5 0 0 0 0 0 0 0 0 0 0 0
0 0 0 5 8 2 4 5 84 100 100 53 100 10 100 0 0 0 0 0 0 0 0 0 5 4 12 85 73 4 5 5 5 0 0 0 0 0 0 0 0 0 0 0
0 0 0 0 0 1 0 82 98 58 53 100 100 92 67 4 0 0 0 0 0 0 0 0 0 0 4 4 17 5 11 0 4 0 0 0 0 0 0 0 0 0 0 0
5 0 0 0 0 0 81 17 0 0 1 5 96 100 92 5 1 4 5 3 0 0 0 0 0 0 0 0 13 96 35 1 0 4 4 0 0 0 0 23 13 13 6 30
92 97 5 0 0 0 0 0 0 0 2 0 9 66 87 83 0 5 5 5 5 0 0 0 0 0 0 0 0 0 0 0 4 4 35 87 29 0 0 15 42 54 68 86
100 100 98 15 1 0 0 0 0 0 0 4 3 4 5 100 26 4 5 5 5 5 3 0 0 0 0 0 0 0 0 0 0 11 100 76 92 5 2 0 30 66 100 100
98 100 100 16 56 1 0 0 0 0 0 1 5 8 6 65 93 10 5 1 5 5 0 0 0 0 0 0 0 1 1 0 1 97 100 84 100 88 98 5 28 63 100 100
73 95 100 64 52 47 0 5 81 49 13 0 3 5 5 5 30 6 21 60 50 32 4 20 16 0 0 0 0 50 18 56 100 100 100 100 75 20 100 80 57 98 100 100
5 63 90 81 63 5 56 69 94 92 15 18 0 0 5 2 41 52 75 34 5 5 4 0 0 0 0 27 1 5 5 40 100 100 94 24 100 59 100 100 100 100 100 100
5 5 5 100 100 8 100 57 99 76 50 16 4 0 0 27 28 9 33 55 13 3 0 0 0 0 0 0 2 5 6 21 2 0 6 66 8 5 98 100 100 100 100 100
30 15 31 34 100 100 100 83 84 32 10 0 0 42 9 0 7 3 4 4 0 0 0 0 0 0 0 0 0 0 1 10 5 3 0 17 99 100 100 100 100 100 100 100
62 88 61 14 99 100 100 98 20 53 10 10 4 4 77 22 5 4 2 6 3 2 0 0 0 0 58 93 100 100 85 2 31 0 5 83 98 100 100 100 100 100 100 100

GFSCGP_prec_cloud_018.txt.gz
Cloud_Cover
0 0 0 0 0 0 0 0 0 0 4 0 0 80 0 14 42 33 79 5 1 0 0 0 0 0 0 0 0 0 0 0 0 0 8 6 0 0 0 0 0 0 0 0
0 0 0 0 0 0 0 0 0 0 1 0 0 17 5 1 18 13 100 6 85 0 0 0 0 0 0 0 0 0 0 0 0 0 0 0 0 0 0 0 0 0 0 0
0 0 0 0 0 0 0 0 0 0 5 3 0 0 5 5 72 8 16 100 8 0 0 0 0 0 0 0 0 0 0 0 0 0 0 6 2 2 1 0 0 0 0 0
0 0 0 0 0 0 0 0 0 0 3 5 3 0 0 4 3 5 8 73 1 0 0 0 0 0 0 0 0 0 0 0 0 0 0 0 0 0 0 0 0 0 0 0
0 0 0 0 0 0 0 0 0 0 0 2 4 0 0 0 0 2 5 0 2 0 0 0 0 0 0 0 0 0 0 0 0 0 0 0 0 0 0 0 0 0 0 0
0 0 0 0 0 0 0 0 0 0 0 4 0 0 0 0 7 14 5 2 45 2 0 0 0 0 0 0 0 0 0 0 0 0 0 0 0 0 0 0 0 0 0 0
0 0 0 0 0 0 0 0 0 0 0 10 0 1 0 0 55 20 1 0 3 4 0 0 0 4 3 1 0 0 0 0 0 0 0 0 0 0 0 0 0 0 0 9
0 0 0 0 0 0 0 0 0 0 0 0 0 65 0 0 10 7 0 5 5 5 0 0 5 18 5 1 4 1 0 0 0 0 0 0 0 0 0 0 0 0 0 0
0 0 0 0 0 0 0 0 0 0 0 0 0 1 7 1 0 5 4 7 4 0 4 5 5 5 100 21 4 0 0 0 0 0 0 0 0 0 0 0 0 0 0 0
0 0 0 0 0 0 0 0 0 0 0 0 0 0 6 5 1 0 4 8 1 0 5 26 32 2 9 44 4 1 2 3 0 0 0 0 0 0 0 0 0 0 0 0
0 0 0 0 0 0 0 0 0 0 0 0 0 0 0 0 0 0 0 4 39 4 1 9 100 92 5 91 10 4 5 1 0 0 0 0 0 0 0 0 0 0 0 0
0 0 0 0 0 0 0 0 0 0 0 0 0 0 0 0 0 0 0 0 2 83 1 0 3 30 5 5 5 5 2 5 3 0 0 0 1 0 0 0 0 0 0 0
0 0 0 0 0 0 0 0 0 1 0 0 0 5 0 0 0 0 0 0 3 0 0 3 0 15 5 2 0 4 2 2 5 5 5 18 14 0 0 0 0 0 0 0
0 0 0 0 0 0 0 0 0 4 0 3 16 73 0 0 0 0 0 0 0 5 1 0 0 0 0 0 0 0 0 2 1 3 0 3 2 0 0 0 0 0 0 0
0 0 0 0 0 0 0 0 0 73 66 1 100 6 0 0 0 0 0 0 0 0 4 5 1 0 0 0 0 0 3 0 0 0 0 0 0 0 0 0 0 0 0 0
0 0 0 0 0 0 4 5 0 4 68 11 69 3 0 0 0 0 0 0 0 0 0 0 4 5 5 2 2 18 54 91 8 0 0 0 1 5 1 0 0 0 0 0
0 0 0 0 0 0 4 31 31 9 5 48 90 57 5 0 0 0 0 0 0 0 0 0 0 0 0 5 5 5 59 100 98 53 5 0 0 0 0 0 0 0 0 0
2 4 0 0 0 0 5 3 5 2 3 44 91 100 16 0 0 0 0 0 2 0 0 0 0 0 0 0 0 0 1 3 3 0 0 5 20 15 0 0 0 0 0 0
79 5 2 0 0 0 0 0 0 5 5 23 96 100 8 0 0 0 0 0 0 0 0 0 0 0 0 0 0 0 0 0 5 3 0 0 4 10 5 5 4 0 0 2
16 100 14 0 0 0 0 0 0 0 8 5 9 100 97 27 6 6 0 0 0 0 0 0 0 0 0 0 0 0 0 0 0 0 23 100 86 14 4 89 100 52 5 18
0 3 53 6 1 0 0 0 0 0 68 41 64 76 8 78 84 6 1 13 14 15 2 0 0 0 0 0 0 0 0 0 2 79 30 66 9 66 87 98 77 62 86 69
0 4 9 5 26 0 0 0 0 15 12 88 72 9 71 39 21 54 5 3 0 0 2 1 2 41 39 0 0 0 0 2 5 5 5 6 77 92 70 86 44 92 99 91
2 3 12 0 0 2 0 0 0 8 82 99 100 20 21 51 97 52 8 5 5 5 0 0 0 0 1 0 0 0 5 1 0 5 5 4 0 100 99 100 94 100 90 67
2 3 81 88 1 0 0 0 0 0 13 54 72 65 21 91 14 5 5 5 5 0 0 0 4 2 0 0 0 0 0 0 5 20 5 92 24 5 36 97 45 90 100 98
65 2 0 2 0 3 0 0 7 7 62 54 88 25 3 0 5 5 5 4 5 5 0 1 0 4 0 0 0 0 0 0 0 1 0 1 2 0 1 32 48 85 77 98
74 6 5 0 0 1 4 0 4 79 85 98 83 41 85 57 60 75 100 90 76 85 59 32 40 18 22 29 0 0 0 1 33 61 97 4 0 0 13 99 100 100 97 100

GFSCGP_prec_cloud_021.txt.gz
Cloud_Cover
0 0 0 0 0 0 0 0 0 5 18 26 5 0 5 5 5 5 5 87 62 0 0 0 0 0 0 0 0 0 0 0 0 0 0 0 0 0 0 0 0 0 0 0
0 0 0 0 0 0 0 0 0 3 0 0 0 1 5 2 5 25 5 24 99 5 0 0 0 0 0 0 0 0 0 0 0 0 0 0 0 0 0 0 0 0 0 0
0 0 0 0 0 0 0 0 0 0 0 0 0 0 5 1 5 5 56 6 51 11 0 0 0 0 0 0 0 0 0 0 0 0 0 0 0 0 0 0 0 0 0 0
0 0 0 0 0 0 0 0 0 0 0 0 0 0 0 5 5 1 82 0 3 4 0 0 0 0 0 0 0 0 0 0 0 0 0 0 0 0 0 0 0 0 0 0
0 0 0 0 0 0 0 0 0 0 0 1 0 0 0 0 4 0 5 0 0 0 0 0 0 0 0 0 0 0 0 0 0 0 0 0 0 0 0 0 0 0 0 0
0 0 0 0 0 0 0 0 0 0 0 1 0 0 0 0 2 5 5 4 0 0 0 0 0 0 0 0 0 0 0 0 0 0 0 0 0 0 0 0 0 0 0 0
0 0 0 0 0 0 0 0 0 0 0 0 0 0 0 0 1 4 5 0 2 0 0 0 0 0 0 0 0 0 0 0 0 0 0 0 0 0 0 0 0 0 0 0
0 0 0 0 0 0 0 0 0 0 0 0 0 0 0 0 3 5 36 16 1 0 0 0 0 0 0 0 0 0 0 0 0 0 0 0 0 0 0 0 0 0 0 0
0 0 0 0 0 0 0 0 0 0 0 0 0 0 0 0 0 44 5 5 0 0 0 0 0 0 0 0 0 0 0 0 0 0 0 0 0 0 0 0 0 0 0 0
0 0 0 0 0 0 0 0 0 0 0 0 0 0 0 0 0 2 5 1 1 0 0 4 5 5 5 5 5 1 0 0 0 0 0 0 0 0 0 0 0 0 0 0
0 0 0 0 0 0 0 0 0 0 0 0 0 0 0 0 0 0 0 1 5 4 2 4 5 24 90 97 5 4 0 1 0 0 0 0 0 0 0 0 0 0 0 0
0 0 0 0 0 0 0 0 0 0 0 0 0 0 0 0 0 0 2 41 80 7 99 100 92 82 100 63 93 5 2 0 0 0 0 0 0 0 0 0 2 0 0 0
0 0 0 0 0 0 0 0 0 0 0 0 0 0 0 0 0 0 0 0 5 54 95 70 57 6 96 100 35 5 4 0 0 0 1 9 0 1 0 86 100 0 0 0
0 0 0 0 0 0 0 0 0 0 0 1 2 4 0 0 0 0 0 0 0 2 5 6 36 5 6 58 30 2 6 1 0 0 0 7 57 80 5 1 15 3 0 0
0 0 0 0 0 0 0 0 0 0 1 10 99 0 0 0 0 0 0 0 0 0 0 5 5 8 5 3 5 5 4 0 0 0 0 0 0 0 0 0 0 0 0 0
0 0 0 0 0 0 0 0 0 0 0 70 97 0 0 0 0 0 0 0 0 0 0 0 0 4 5 6 5 0 0 0 4 0 0 0 0 0 0 0 0 0 0 0
0 0 0 0 0 0 0 0 0 0 3 19 95 33 0 0 0 0 0 0 0 0 0 0 0 0 0 3 5 9 4 0 5 25 100 68 19 1 1 0 0 0 0 0
1 1 0 0 0 0 0 0 0 0 5 6 100 93 0 0 0 0 0 0 0 0 0 0 0 0 0 0 0 0 2 5 3 92 100 76 3 12 3 0 0 0 0 0
89 6 0 0 0 0 0 0 0 0 5 41 100 100 84 2 0 5 5 0 0 0 0 0 0 0 0 0 0 0 0 2 0 1 31 1 3 4 2 0 5 5 5 20
16 99 19 0 0 0 0 0 0 0 4 69 100 100 100 80 0 0 3 5 4 3 0 0 0 0 0 0 0 0 0 0 0 0 5 1 1 4 3 5 6 33 11 5
0 6 4 5 1 0 0 0 0 0 5 5 48 100 49 8 8 0 0 0 4 5 5 3 0 0 0 0 0 0 0 0 0 0 0 0 0 0 5 5 18 7 25 18
2 6 16 4 4 0 0 0 0 2 4 11 9 58 96 14 3 5 1 0 0 4 5 5 3 5 2 0 0 0 0 0 0 0 0 0 0 0 0 0 0 11 19 18
4 2 63 1 0 0 0 0 0 0 0 0 5 5 97 74 5 1 0 0 0 0 0 5 5 5 4 0 0 0 0 0 0 0 0 0 0 1 4 1 2 46 63 33
15 5 10 1 3 2 0 0 0 0 0 0 63 67 100 100 27 4 0 0 0 0 0 0 4 5 5 5 3 0 0 0 0 0 0 0 0 4 7 1 14 55 63 91
38 35 5 5 1 0 0 0 0 0 0 8 33 86 100 93 94 4 0 0 0 0 0 0 0 2 5 5 5 4 1 0 0 0 0 4 5 4 4 1 2 16 5 57
38 8 16 5 4 16 0 0 2 0 0 31 39 100 100 96 99 100 100 100 100 100 91 71 44 28 35 0 0 0 4 0 0 0 0 0 0 0 0 0 9 96 89 81

GFSCGP_prec_cloud_024.txt.gz
Cloud_Cover
0 0 0 0 0 0 0 0 0 0 1 11 6 5 5 5 5 3 0 5 0 4 0 0 0 0 0 0 5 6 0 11 1 1 0 0 0 0 0 0 0 0 0 7
0 0 0 0 0 0 0 0 0 0 5 4 7 5 5 5 4 5 0 40 15 6 2 0 0 0 0 0 0 1 0 1 7 0 0 0 0 0 0 0 0 0 0 0
0 0 0 0 0 0 0 0 0 0 3 1 5 4 5 5 0 5 5 9 27 1 15 0 0 0 0 0 0 0 0 0 1 0 0 0 0 0 0 0 0 0 0 0
0 0 0 0 0 0 0 0 0 0 2 3 3 7 59 3 5 2 5 3 4 5 0 0 0 0 0 0 0 0 0 2 5 0 0 0 0 0 0 0 0 0 0 0
0 0 0 0 0 0 0 0 0 0 0 2 0 0 0 1 0 0 2 5 1 0 0 0 0 0 4 0 0 0 0 0 0 0 0 0 0 0 0 0 0 0 0 0
0 0 0 0 0 0 0 0 0 0 0 0 0 0 0 0 0 0 0 3 4 1 0 0 0 0 0 0 0 0 0 0 0 0 0 0 0 0 0 0 0 0 0 0
0 0 0 0 0 0 0 0 0 0 0 0 0 0 0 0 0 0 0 5 0 4 0 0 0 0 0 0 0 0 0 0 0 0 0 0 0 0 0 0 0 0 0 0
0 0 0 0 0 0 0 0 0 0 0 0 0 0 0 0 0 0 5 5 0 0 0 0 0 0 0 0 0 0 4 0 0 0 0 0 0 0 0 0 0 0 0 0
0 0 0 0 0 0 0 0 0 0 0 0 0 0 0 0 0 0 5 2 0 0 0 0 0 0 0 0 0 0 1 3 0 0 0 0 0 0 0 0 0 0 0 0
0 0 0 0 0 0 0 0 0 0 0 0 0 0 0 0 0 0 2 0 0 0 0 0 0 0 0 0 0 0 0 0 0 0 0 0 0 0 0 0 0 0 0 0
0 0 0 0 0 0 0 0 0 0 0 0 0 0 0 0 0 0 0 0 0 0 0 0 0 0 0 0 1 0 0 0 0 0 0 0 0 0 0 0 0 0 0 0
0 0 0 0 0 0 0 0 0 0 0 0 0 0 0 0 0 0 0 0 0 5 1 1 2 0 0 0 3 5 0 0 0 0 5 0 0 0 0 0 0 0 0 0
0 0 0 0 0 0 0 0 0 16 4 0 0 0 0 0 0 0 0 0 0 0 0 0 0 5 8 5 5 5 5 0 0 0 0 0 4 5 0 0 0 0 0 62
0 0 0 0 0 0 0 0 0 0 5 0 2 0 0 0 0 0 0 2 0 0 0 2 0 0 5 5 6 100 31 5 4 0 0 0 4 5 0 0 0 0 0 0
0 0 0 0 0 0 0 0 0 0 45 4 3 0 0 0 0 0 0 0 0 0 1 5 5 5 5 5 6 32 100 100 7 4 2 4 0 0 0 0 0 0 0 0
0 0 0 0 0 0 0 0 0 1 100 24 46 0 0 0 0 0 0 0 0 0 0 0 5 5 5 5 5 5 5 10 5 4 0 0 0 0 0 0 0 0 0 0
0 0 0 0 0 0 0 0 0 2 96 31 43 6 0 0 0 0 0 0 0 0 0 0 2 4 0 4 4 2 3 2 0 0 0 2 4 2 0 1 0 0 0 0
1 2 0 0 0 0 0 0 0 0 86 60 67 5 4 0 0 0 0 0 0 0 0 0 0 0 3 5 4 5 3 2 1 0 4 2 10 92 2 4 3 0 0 0
30 1 0 0 0 0 0 0 0 0 98 100 100 91 21 0 0 0 0 0 0 0 0 0 0 0 0 0 0 0 0 0 0 0 0 4 5 62 11 1 0 0 0 0
100 63 2 4 0 0 0 0 0 0 68 100 100 100 100 6 0 0 0 1 5 0 0 0 0 0 0 0 0 0 0 0 0 0 0 0 0 7 96 1 0 0 0 1
23 98 41 5 5 0 0 0 0 0 7 16 100 52 98 24 1 0 0 0 0 0 1 0 0 0 0 0 0 0 0 0 0 0 0 0 0 0 1 0 0 0 0 0
92 40 10 5 5 4 0 0 0 1 45 1 100 100 87 100 80 0 0 0 3 5 5 5 5 3 0 0 0 0 0 0 0 0 0 0 0 0 0 0 0 0 0 2
14 84 100 63 0 0 0 0 0 0 0 0 28 100 72 74 85 7 0 0 0 2 5 5 5 5 4 0 0 0 0 0 0 0 0 0 0 0 0 0 1 26 11 0
92 96 92 39 4 23 10 0 0 0 0 0 1 66 100 48 96 48 5 0 0 0 0 1 5 4 0 0 0 0 0 0 0 0 0 0 0 0 3 0 14 8 7 44
98 99 51 64 55 10 5 0 0 0 1 0 0 2 96 77 43 79 20 6 2 0 0 0 0 2 5 1 0 0 0 0 0 0 0 0 0 0 2 2 0 0 0 0
17 10 70 5 32 31 10 4 0 3 0 0 0 0 3 23 98 75 49 92 82 86 70 67 77 48 0 0 0 1 0 0 0 0 0 3 0 0 0 0 0 87 49 90

GFSCGP_prec_cloud_027.txt.gz
Cloud_Cover
0 0 0 0 0 0 0 0 0 11 69 24 91 99 100 73 74 100 42 0 0 0 0 0 0 0 0 0 0 0 1 7 24 27 6 0 0 0 0 0 0 0 0 10
0 0 0 0 0 0 0 0 0 4 7 62 98 100 100 100 68 75 83 0 0 0 0 0 0 0 0 0 0 0 0 0 0 6 0 0 0 0 0 0 0 0 0 1
0 0 0 0 0 0 0 0 0 4 5 5 95 85 92 99 96 78 56 3 2 0 0 0 0 0 0 0 0 0 0 0 0 1 2 0 0 0 0 0 0 0 0 0
0 0 0 0 0 0 0 0 0 0 5 5 4 77 94 67 76 34 1 5 0 0 0 0 0 0 0 0 0 0 0 0 0 0 0 0 0 0 0 0 0 0 0 0
0 0 0 0 0 0 0 0 0 0 0 5 5 18 40 51 10 51 5 2 3 0 0 0 0 0 0 0 0 0 0 0 0 0 0 0 0 0 0 0 0 0 0 0
0 0 0 0 0 0 0 0 0 0 0 0 0 4 2 84 76 99 46 5 2 0 0 0 0 0 0 0 0 0 0 0 0 0 0 0 0 0 0 0 0 0 0 0
0 0 0 0 0 0 0 0 0 0 0 0 0 0 0 5 21 5 5 5 5 0 0 0 0 0 0 0 0 0 0 0 0 0 0 0 0 0 0 0 0 0 0 0
0 0 0 0 0 0 0 0 0 0 0 0 0 0 0 1 5 5 5 5 57 0 0 0 0 0 0 0 0 0 0 0 3 0 0 0 0 0 0 0 0 0 0 0
0 0 0 0 0 0 0 0 0 0 0 0 0 0 0 0 0 1 4 5 38 8 0 0 0 0 0 0 0 0 0 0 5 0 0 0 0 0 0 0 0 0 0 0
0 1 0 0 0 0 0 0 0 0 0 0 0 0 0 0 0 0 0 0 0 5 1 0 0 0 0 0 0 0 0 5 5 0 0 0 0 0 0 0 0 0 0 0
0 0 0 0 0 0 0 0 0 0 0 0 0 0 0 0 0 0 0 0 0 0 0 0 0 0 0 0 0 0 0 0 1 0 0 0 0 0 0 0 0 0 0 0
0 0 0 0 0 0 0 0 0 0 0 0 0 0 0 0 0 0 0 0 0 0 0 0 0 0 0 0 0 0 0 0 0 0 0 0 0 0 0 0 0 0 0 0
34 4 2 1 0 0 0 0 0 0 0 0 0 0 0 0 0 0 0 0 0 0 0 0 0 0 0 0 0 0 0 0 0 0 0 2 0 0 0 0 0 0 0 0
0 0 0 0 1 0 0 0 0 0 0 0 0 0 0 0 0 0 0 0 0 0 2 2 2 0 0 0 0 0 0 2 5 0 0 0 0 0 0 0 0 0 0 0
0 0 0 0 100 20 0 0 0 0 0 3 5 0 0 0 0 0 0 0 0 0 0 0 0 0 0 0 0 3 0 3 0 0 0 0 0 0 0 0 0 0 0 0
0 0 0 0 76 14 0 0 0 0 0 5 5 4 0 0 0 0 0 0 0 0 0 0 0 0 0 0 0 5 2 5 72 44 4 0 0 0 0 0 0 1 0 0
5 15 72 10 7 61 0 0 0 0 0 13 15 25 0 0 0 0 0 0 0 0 0 0 0 1 0 0 0 0 0 2 5 5 64 95 100 28 5 4 3 0 0 0
48 51 96 79 27 61 0 0 0 0 0 2 40 100 15 0 0 0 0 0 0 0 0 0 0 1 5 4 0 4 5 2 5 5 4 0 0 0 5 74 14 2 0 0
83 82 84 50 48 17 0 0 6 0 0 0 6 80 87 2 0 0 0 0 0 0 0 0 0 0 1 4 0 0 0 2 5 5 5 0 0 0 0 2 78 4 0 0
98 58 87 86 98 100 96 93 1 2 0 0 5 93 100 5 0 0 0 0 0 0 0 0 0 0 0 3 2 0 0 0 4 5 5 4 0 0 0 0 1 5 3 0
100 96 89 98 100 99 100 87 56 8 36 34 2 4 100 80 0 0 0 0 0 0 0 0 0 0 0 0 0 0 0 0 0 0 0 0 0 0 0 0 0 0 1 0
95 100 100 95 100 90 100 100 100 66 7 12 47 90 100 100 55 0 0 0 0 0 0 0 0 0 0 0 0 0 0 0 0 0 0 0 0 0 0 0 0 0 0 0
77 100 100 100 98 96 100 92 81 33 82 100 94 47 100 100 100 4 0 0 0 0 0 0 0 0 0 0 0 0 0 0 0 0 0 0 0 0 0 0 0 0 1 0
54 61 99 100 51 94 5 50 4 4 5 2 0 6 96 100 100 100 2 0 0 0 5 3 0 0 0 0 0 0 0 0 0 0 0 0 0 0 0 0 9 6 0 19
100 100 42 5 86 18 5 5 5 0 0 0 0 3 77 100 100 100 100 31 2 0 0 2 5 3 1 0 1 6 6 14 0 0 0 0 0 0 7 2 0 6 3 4
100 100 100 97 80 19 2 0 0 0 0 0 0 1 78 100 100 100 100 100 75 36 67 51 39 34 33 36 57 64 10 0 7 12 2 2 0 0 1 1 9 7 16 26

GFSCGP_prec_cloud_030.txt.gz
Cloud_Cover
0 0 0 0 0 0 4 5 0 5 2 93 6 84 0 15 77 100 44 5 0 0 0 0 0 0 40 0 0 0 0 0 5 0 0 0 0 2 0 0 0 0 1 12
0 0 0 0 0 0 0 2 3 4 94 59 81 2 26 77 100 100 4 98 2 0 0 0 0 0 0 0 0 0 0 0 0 0 0 0 0 0 0 0 0 0 99 86
0 0 0 0 0 0 0 0 0 5 11 100 100 83 55 18 60 83 44 6 62 0 0 0 0 0 0 0 0 0 0 0 0 0 0 0 0 0 0 0 0 0 7 100
0 0 0 0 0 0 0 0 0 5 74 5 33 98 2 4 86 11 35 60 98 0 0 0 0 0 0 0 0 0 0 0 0 0 0 0 0 0 0 0 0 0 0 7
0 0 0 0 0 0 0 0 0 0 5 84 63 52 87 6 2 22 1 0 81 11 0 0 0 0 0 0 0 0 0 0 0 0 0 0 0 0 0 0 0 0 0 0
0 0 0 0 0 0 0 0 0 0 0 2 1 34 16 68 1 43 4 5 4 9 21 0 0 0 0 0 0 0 0 0 0 0 0 0 0 0 0 0 0 0 0 0
0 0 0 0 0 0 0 0 0 0 0 0 0 3 0 13 67 98 89 11 59 1 40 0 0 0 0 0 0 0 0 0 0 0 0 0 0 0 0 0 0 0 0 0
0 0 0 0 0 0 0 0 0 0 0 0 0 0 0 1 95 62 100 91 65 5 15 3 0 0 0 0 0 0 0 0 0 0 0 0 0 0 0 0 0 0 0 0
5 0 0 0 0 0 0 0 0 0 0 0 0 0 0 0 0 75 99 100 97 5 97 2 0 0 0 0 0 0 0 0 0 4 4 0 0 0 0 0 0 0 0 0
0 1 0 0 0 0 0 0 0 0 0 0 0 0 0 0 0 2 2 66 82 5 5 5 0 0 0 0 0 0 0 0 0 5 2 0 0 0 0 0 0 0 0 0
0 0 0 0 0 0 0 0 0 0 0 0 1 0 0 0 0 0 0 0 5 8 22 5 0 0 0 0 0 0 0 0 0 0 0 0 0 0 0 0 0 0 0 0
0 0 0 32 0 0 0 0 0 0 0 0 6 93 3 0 0 0 0 0 2 23 97 6 0 0 0 0 0 0 0 0 0 1 5 1 0 0 0 0 0 0 0 0
95 0 0 5 91 4 0 0 0 0 0 0 0 0 0 0 0 0 0 1 3 5 44 31 2 0 0 0 0 0 0 0 0 0 0 0 0 0 0 0 0 0 0 0
40 0 0 0 0 8 0 0 0 0 0 0 0 0 0 0 0 0 0 0 0 0 8 5 3 0 0 0 0 0 0 0 0 0 0 0 0 0 0 0 0 0 0 0
35 0 0 5 4 100 0 0 0 0 0 0 0 0 0 0 0 0 0 0 2 0 7 79 32 11 4 0 0 0 0 0 0 0 0 0 0 0 0 0 0 0 0 0
5 0 2 78 18 100 100 4 0 0 0 0 0 25 0 0 0 0 0 0 0 0 0 5 5 14 5 1 0 0 0 0 0 0 0 0 0 0 0 0 0 0 0 0
59 95 25 3 13 66 85 91 37 0 0 0 0 25 10 0 0 0 0 0 0 0 0 0 0 0 0 0 0 0 0 0 0 0 0 0 0 0 0 0 0 0 0 4
100 81 34 5 100 100 38 100 76 29 0 0 0 39 100 80 3 0 0 0 0 0 0 0 0 0 0 0 0 0 0 0 0 0 0 0 4 5 45 100 100 82 5 5
100 82 73 16 100 47 98 10 41 31 47 41 9 27 88 8 5 0 0 0 0 0 0 0 0 0 0 0 0 0 0 0 0 0 4 3 0 5 0 1 1 0 5 5
99 100 47 5 99 100 99 92 100 100 96 100 100 70 3 1 1 0 0 0 0 0 0 0 0 0 0 1 6 5 0 0 0 5 64 100 18 5 2 2 0 0 0 4
100 100 98 74 10 100 99 100 100 100 100 5 5 70 4 0 2 70 0 0 0 0 0 0 0 0 0 0 0 10 20 5 1 0 0 4 5 5 5 5 0 0 0 7
100 100 99 100 67 100 100 100 100 100 7 5 2 0 0 0 0 1 0 0 0 0 0 0 0 0 0 0 0 0 1 5 5 5 5 5 5 5 10 26 5 0 0 0
47 100 100 100 100 100 100 100 100 15 69 48 0 0 0 0 0 7 76 0 0 0 0 0 0 0 0 0 0 0 0 0 0 0 0 0 0 0 0 0 0 0 0 0
62 100 97 100 74 100 100 100 98 88 5 38 5 0 0 2 2 51 70 4 57 99 7 0 0 0 0 0 0 0 0 0 0 0 0 0 0 0 0 0 0 0 0 4
50 55 32 89 12 96 100 32 6 5 5 92 46 43 0 0 5 5 40 22 81 82 0 1 2 22 5 0 0 0 0 0 0 0 0 0 0 0 2 4 0 28 0 0
2 5 62 54 62 17 51 38 5 0 5 5 96 69 5 2 5 15 93 73 13 8 4 12 0 73 20 2 59 11 0 0 0 0 0 0 0 0 0 1 1 1 98 100

GFSCGP_prec_cloud_033.txt.gz
Cloud_Cover
0 0 0 0 0 0 0 0 0 0 2 81 0 1 8 36 2 96 100 100 100 8 1 7 0 22 0 0 0 0 0 0 0 0 0 0 0 0 0 0 0 7 8 5
0 0 0 0 0 0 0 0 0 2 0 67 26 99 100 90 7 100 100 100 99 100 62 0 0 0 0 0 0 0 0 0 0 0 0 0 0 0 0 0 1 100 25 4
0 0 0 0 0 0 0 0 0 0 0 10 97 95 100 100 51 100 100 100 76 100 34 0 0 0 0 0 0 0 0 0 0 0 0 0 0 0 0 0 1 95 60 78
0 0 0 0 0 0 0 0 0 0 2 39 100 94 100 100 93 100 100 100 87 80 42 94 2 0 0 0 0 0 0 0 0 0 0 0 0 0 0 0 0 1 86 100
0 0 0 0 0 0 0 0 0 0 0 5 74 98 33 100 99 66 98 100 100 43 74 100 0 0 0 0 0 0 0 0 0 0 0 0 0 0 0 0 0 0 0 0
0 0 0 0 0 0 0 0 0 0 0 2 1 56 40 2 1 5 5 2 0 73 100 100 0 0 0 0 0 0 0 0 0 0 0 0 0 0 0 0 0 0 0 0
0 0 0 0 0 0 0 0 0 0 0 0 0 1 0 4 0 3 14 29 15 100 100 100 100 0 0 0 0 0 0 0 0 0 0 0 0 0 0 0 0 0 0 0
0 0 0 0 0 0 0 0 0 0 0 0 0 0 0 0 13 98 94 38 91 28 54 54 94 0 0 0 0 0 0 0 0 0 0 0 0 0 0 0 0 0 0 0
0 0 0 0 0 0 0 0 0 0 0 0 0 0 0 0 0 5 47 98 99 5 4 0 0 0 0 0 0 0 0 0 0 0 0 0 0 0 0 0 0 0 0 0
0 6 0 0 0 0 0 0 0 0 0 0 0 0 0 0 0 0 0 95 80 17 4 0 0 0 0 0 0 0 0 0 0 0 0 0 0 0 0 0 0 0 0 0
0 0 0 75 1 0 0 0 0 0 0 0 0 0 0 0 0 0 0 3 10 12 5 0 0 0 5 0 0 0 0 0 0 0 0 0 0 0 0 0 0 0 0 0
5 4 0 0 0 0 0 0 0 0 0 0 0 0 0 0 0 0 0 0 5 7 5 0 0 0 5 0 0 0 0 0 0 0 0 0 0 0 0 0 0 0 0 0
77 3 1 0 2 16 1 0 0 0 0 0 0 0 0 0 0 0 0 0 1 5 6 5 1 0 4 0 0 0 0 0 0 0 0 0 0 0 0 0 0 0 0 0
62 0 0 0 0 0 2 2 0 0 0 0 0 0 0 1 0 0 0 0 0 25 57 10 5 0 0 0 0 0 0 0 0 0 0 0 0 1 4 0 0 0 0 0
58 0 0 0 0 2 77 44 1 0 0 0 0 0 0 0 0 0 0 0 0 0 7 5 2 0 0 0 0 0 0 0 0 0 0 0 0 5 5 0 0 0 0 0
48 5 0 0 1 100 67 97 20 0 0 5 0 0 0 0 3 0 0 0 0 0 5 5 5 5 0 0 0 0 0 0 0 0 0 0 0 0 0 0 0 0 0 0
88 95 1 0 85 100 83 28 67 2 0 0 3 0 0 0 0 0 0 0 0 0 3 10 5 5 0 0 0 0 0 0 0 0 0 0 0 1 0 0 0 0 0 0
81 83 4 22 100 49 1 97 82 100 0 0 0 12 4 72 86 2 0 0 0 0 0 0 0 0 0 2 0 0 0 0 0 0 0 0 0 5 3 0 0 0 3 2
96 49 11 100 100 2 74 100 100 100 100 6 63 99 100 96 5 2 0 0 0 0 0 0 0 0 0 1 2 5 4 0 0 0 0 0 0 5 31 5 3 2 11 69
100 62 46 94 100 83 100 100 86 100 100 86 100 100 100 43 5 0 0 0 0 0 0 0 0 0 0 0 4 5 4 4 0 0 0 13 100 99 94 5 5 5 1 0
100 97 93 98 100 86 100 100 100 100 99 83 100 100 79 0 4 0 0 0 0 0 0 0 0 0 0 0 0 0 2 3 1 0 2 5 5 41 76 5 5 5 5 4
100 100 79 100 98 100 100 100 100 100 100 95 89 100 0 0 0 0 0 0 0 0 0 0 0 0 0 0 0 0 0 4 5 4 5 1 2 0 0 3 5 9 15 5
100 100 100 100 100 96 100 100 100 100 100 98 84 19 0 0 0 0 0 0 0 0 0 0 0 0 0 0 0 0 0 0 0 2 5 11 5 5 5 6 16 28 53 55
100 81 100 100 100 96 100 100 96 96 100 100 20 2 0 0 0 0 1 85 0 0 0 5 0 0 0 0 0 0 0 0 0 0 0 2 5 5 5 5 5 5 4 4
95 97 100 100 100 27 100 100 100 97 100 100 33 2 0 0 0 0 0 0 98 12 0 0 5 4 5 2 0 0 0 0 0 0 0 0 0 0 0 0 2 0 2 13
56 45 5 15 14 15 42 100 100 100 55 99 30 26 0 0 0 0 0 0 21 74 0 0 0 2 10 38 2 0 0 0 0 0 0 0 0 0 0 0 18 92 71 98

GFSCGP_prec_cloud_036.txt.gz
Cloud_Cover
0 0 0 0 0 0 0 0 0 0 0 5 94 100 61 1 0 0 92 100 16 17 1 12 2 0 0 0 0 0 0 0 0 0 0 0 0 0 0 0 26 5 52 40
0 0 0 0 0 0 0 0 0 0 3 6 19 94 53 1 0 2 60 100 100 68 5 0 0 0 0 0 0 0 0 0 0 0 0 0 0 0 0 0 3 63 6 3
0 0 0 0 0 0 0 0 0 0 2 5 86 100 100 5 5 6 87 100 75 100 94 2 97 19 0 0 0 0 0 0 0 0 0 0 0 0 2 0 90 17 38 34
0 0 0 0 0 0 0 0 0 0 0 0 69 100 76 96 5 5 34 100 93 98 98 42 20 5 0 0 0 0 0 0 0 0 0 0 0 0 0 0 12 48 33 58
0 0 0 0 0 0 0 0 0 0 0 0 5 53 9 5 1 0 6 100 100 100 5 69 18 12 0 0 0 0 0 0 0 0 0 0 0 0 0 0 0 1 6 73
0 0 0 0 0 0 0 0 0 0 0 5 4 4 4 2 0 0 93 100 100 100 98 82 99 50 4 0 0 0 0 0 0 0 0 0 0 0 0 0 0 0 2 0
0 0 0 0 0 0 0 0 0 0 0 0 0 4 0 0 3 3 4 99 100 100 99 100 74 31 4 0 0 0 0 0 0 0 0 0 0 0 0 0 0 0 0 0
0 0 0 0 0 0 0 0 0 0 0 0 0 0 0 3 5 2 0 0 17 32 58 89 100 5 35 1 0 0 0 0 0 0 0 0 0 0 0 0 0 0 0 0
0 0 0 0 0 0 0 0 0 0 0 0 0 0 0 0 0 0 3 5 5 0 0 38 3 100 14 79 0 0 0 0 0 0 0 0 0 0 0 0 0 0 0 0
0 0 0 0 8 0 0 0 0 0 0 0 0 0 0 0 0 0 0 0 0 3 4 5 3 91 66 17 0 0 0 0 0 0 0 0 0 0 0 0 0 0 0 0
5 0 0 55 13 0 0 0 0 0 0 0 0 0 0 0 0 0 0 0 0 0 5 4 0 4 2 0 0 0 0 0 0 0 0 0 0 0 0 0 0 0 0 0
100 100 1 2 0 10 2 0 0 0 0 0 0 0 0 0 0 0 0 0 0 0 1 2 0 4 0 0 0 0 0 0 0 0 0 0 0 0 0 0 0 0 0 0
100 100 67 0 6 97 43 0 0 0 0 0 0 0 0 0 0 0 0 0 0 2 0 0 3 5 0 0 0 0 0 0 0 0 0 0 0 0 0 0 0 0 0 0
100 51 27 0 0 2 4 1 0 0 0 0 0 0 0 0 0 0 0 0 0 0 0 0 5 5 5 5 3 0 0 0 0 0 0 0 0 0 0 0 0 0 0 0
100 36 5 0 0 1 0 5 0 0 0 0 0 0 0 0 0 0 0 0 0 0 0 0 1 1 3 5 5 0 0 0 0 0 0 0 0 0 0 3 0 5 4 0
100 68 3 0 1 2 0 0 0 0 0 5 0 2 0 0 0 4 0 0 0 0 0 5 1 0 1 2 3 0 0 0 0 0 0 0 0 0 0 5 5 23 5 5
100 37 5 2 32 17 5 23 3 2 5 98 89 58 4 0 4 30 2 0 0 0 0 0 0 0 0 5 5 0 0 0 0 0 0 0 0 0 0 5 4 5 4 5
100 19 1 100 100 100 90 100 32 5 54 5 4 83 100 69 96 91 4 0 0 0 0 0 0 0 3 5 5 5 5 0 0 0 1 1 0 3 5 2 2 0 0 6
100 62 9 100 100 99 100 100 34 5 5 4 0 22 6 53 0 3 0 0 0 0 0 0 0 0 0 0 8 12 2 0 0 1 2 18 4 100 91 27 4 3 0 0
100 52 6 86 100 100 100 100 95 5 6 93 5 3 63 5 4 0 0 0 0 0 0 0 0 0 0 0 6 8 5 5 5 0 0 0 5 58 97 100 7 5 4 1
100 100 100 92 100 92 100 84 68 100 63 100 57 2 3 4 20 26 0 0 0 0 0 0 0 0 0 0 0 1 4 28 36 3 0 1 5 54 100 100 71 60 99 12
100 100 100 81 98 100 100 100 87 100 100 100 98 81 52 4 2 4 5 0 1 0 0 0 0 0 0 0 0 0 0 87 73 32 21 0 56 76 14 52 58 51 5 5
100 100 100 97 100 100 100 100 100 100 100 100 100 100 85 0 0 5 4 0 5 3 0 0 0 0 0 0 0 0 0 0 2 9 6 5 61 47 37 12 25 5 20 67
100 100 100 42 99 81 100 100 100 100 100 100 100 100 80 1 0 2 6 4 0 10 4 0 0 3 13 0 0 0 0 0 0 0 3 5 5 2 0 0 0 0 0 0
100 100 93 37 62 82 100 99 100 100 100 94 100 91 44 22 0 0 3 5 5 0 0 0 0 1 0 0 0 0 0 0 0 0 0 0 1 16 13 81 56 11 22 20
100 100 100 100 47 79 100 100 100 100 100 98 60 2 30 0 0 0 5 65 8 5 0 0 2 0 0 0 0 0 0 0 0 0 0 0 0 6 21 38 23 59 22 91

GFSCGP_prec_cloud_039.txt.gz
Cloud_Cover
0 0 0 0 0 0 0 0 0 3 12 5 5 5 5 0 0 0 5 5 8 12 0 0 0 0 0 0 0 0 0 0 0 0 0 0 0 0 0 0 0 5 5 5
0 0 0 0 0 0 0 0 0 0 36 4 5 4 0 1 0 0 5 14 36 8 5 3 7 0 0 0 0 0 0 0 0 0 0 0 0 0 0 0 2 49 7 5
0 0 0 0 0 0 0 0 0 0 88 8 6 22 0 10 0 2 3 54 22 50 9 49 6 16 0 0 0 0 0 0 0 0 0 0 0 0 0 0 0 5 7 6
0 0 0 0 0 0 0 0 0 0 37 16 5 5 5 0 0 0 2 5 13 5 5 5 3 3 3 0 0 0 0 0 0 0 0 0 0 0 0 0 16 5 63 100
0 0 0 0 0 0 0 0 0 0 2 86 27 19 7 2 3 0 0 55 33 5 4 4 5 2 14 6 0 0 0 0 0 0 0 0 0 0 0 0 9 8 23 69
0 0 0 0 0 0 0 0 0 0 0 4 4 20 5 1 0 0 0 8 88 94 13 74 89 27 5 12 2 0 0 0 0 0 0 0 0 0 0 0 0 68 51 95
0 0 0 0 0 0 0 0 0 0 1 0 0 4 0 0 0 0 0 5 2 25 93 100 100 77 4 2 5 1 0 0 0 0 0 0 0 0 0 0 0 1 4 3
32 0 0 0 0 0 0 0 0 0 0 0 0 0 0 0 0 0 0 4 1 5 9 49 93 30 5 5 5 0 0 0 0 0 0 0 0 0 0 0 0 0 0 0
46 4 0 0 0 0 0 0 0 0 0 0 0 0 0 0 0 0 0 0 0 4 8 97 94 10 6 5 5 9 5 0 0 0 0 0 0 0 0 0 0 0 0 0
62 68 0 0 2 0 0 0 0 0 0 0 0 0 0 0 0 0 0 0 0 3 22 91 58 6 1 61 96 5 5 24 0 0 0 0 0 0 0 0 0 0 0 0
90 100 6 0 3 0 0 5 0 0 0 0 0 0 0 0 0 0 0 0 0 0 4 55 53 0 0 4 0 67 54 22 4 0 0 0 0 0 0 0 0 0 0 0
100 100 100 0 0 0 5 4 75 0 0 0 0 0 0 0 0 0 0 0 0 4 5 6 74 26 5 0 1 5 5 0 0 0 0 0 0 0 0 0 0 0 0 0
100 100 67 0 0 0 73 12 0 1 0 0 0 0 0 0 0 0 0 0 0 0 70 98 86 5 0 4 0 0 0 0 0 0 0 0 0 0 0 0 0 0 0 0
100 100 34 4 2 47 11 5 0 0 0 0 0 0 0 0 0 0 2 5 0 0 32 85 20 0 5 4 2 1 0 0 0 0 0 0 0 0 0 0 0 0 0 0
100 100 21 4 5 21 1 5 2 0 0 0 0 0 0 0 0 0 0 0 0 0 0 5 0 2 4 5 5 5 0 0 0 0 0 0 0 0 0 0 0 0 0 4
100 100 28 0 5 10 5 61 5 4 0 0 0 0 0 0 0 0 0 0 0 0 0 2 0 0 0 3 5 5 0 0 0 0 0 0 0 0 0 0 0 0 0 5
100 100 42 3 5 100 100 100 98 90 0 0 0 0 0 0 0 0 4 0 0 0 0 0 0 0 0 0 0 5 2 0 0 0 0 0 0 0 0 0 0 0 0 5
100 100 56 5 23 100 100 100 100 63 0 2 1 0 2 0 0 0 11 4 0 0 0 2 4 5 0 4 4 58 5 0 0 0 0 0 0 0 0 0 0 8 3 3
100 100 62 5 84 100 100 100 92 20 0 16 5 4 5 24 4 0 8 38 0 0 0 0 1 0 0 0 54 5 5 1 0 0 2 0 0 0 0 4 5 5 3 23
100 100 100 6 52 100 100 92 69 73 0 100 19 2 6 2 56 92 53 58 64 6 0 0 0 0 0 1 54 5 4 2 4 5 2 0 5 62 100 98 84 42 5 1
100 100 100 100 100 86 40 99 78 100 58 100 100 99 39 52 94 94 20 48 96 85 35 0 0 0 0 0 2 4 69 22 6 4 5 48 17 100 99 64 99 71 5 1
100 100 100 100 100 99 95 88 73 25 100 100 100 100 100 100 100 30 12 29 32 40 24 32 5 1 0 0 5 4 82 47 5 5 4 5 1 35 97 100 59 86 42 48
100 100 100 100 100 100 91 100 91 100 100 100 100 100 100 100 100 50 99 80 91 60 63 16 26 3 0 0 1 5 4 5 5 30 99 63 5 3 75 66 100 77 93 90
100 100 100 100 100 100 95 57 100 100 100 100 100 100 100 100 100 100 100 100 98 99 96 46 8 1 2 0 0 0 0 1 2 5 69 99 82 96 32 15 12 5 5 74
100 100 100 100 97 100 100 100 100 100 100 100 100 100 100 100 100 100 100 100 100 60 67 69 24 27 20 0 0 0 0 0 3 0 0 2 18 100 100 100 100 98 20 22
100 100 100 100 100 99 100 100 100 100 100 100 100 100 100 100 100 100 100 99 100 100 79 18 17 10 13 0 0 0 0 0 0 0 0 4 12 42 100 72 69 100 100 100

GFSCGP_prec_cloud_042.txt.gz
Cloud_Cover
0 0 0 0 0 0 0 0 3 9 5 5 5 11 93 62 5 0 5 5 5 5 0 1 5 0 0 0 0 0 0 0 0 2 0 0 0 0 0 0 0 0 0 0
0 0 0 0 0 0 0 0 0 4 35 11 5 5 100 5 0 5 5 5 5 2 5 4 4 1 0 0 0 0 0 0 0 0 0 0 0 0 0 0 0 0 0 0
0 0 0 0 0 0 0 0 0 0 72 99 5 7 8 0 0 0 0 5 3 5 5 4 0 12 5 3 0 0 0 0 0 0 0 0 0 0 0 4 5 0 0 0
0 0 0 0 0 0 0 0 0 0 7 97 80 16 0 0 0 0 0 0 5 5 5 5 0 3 5 9 1 0 0 0 0 0 0 0 0 0 0 0 0 0 0 4
0 0 0 0 0 0 0 0 0 0 0 5 71 68 0 0 37 0 0 1 1 5 5 5 4 0 0 1 13 0 0 0 0 0 0 0 0 0 0 0 0 0 5 5
0 0 0 0 0 0 0 0 0 0 0 0 2 85 5 1 0 0 0 2 5 5 5 5 2 5 4 5 38 33 0 0 0 0 0 0 0 0 0 0 5 5 4 5
0 0 0 0 0 0 0 0 0 0 0 1 0 18 5 0 0 0 0 5 4 4 5 5 5 38 10 9 5 3 3 0 0 0 0 0 0 0 0 0 0 1 4 5
23 0 0 0 0 0 0 0 0 0 0 0 3 0 0 0 0 0 2 4 36 7 5 33 50 61 31 5 4 5 5 0 0 0 0 0 0 0 0 0 0 0 4 5
18 9 0 0 0 0 0 0 0 0 0 0 0 0 0 0 0 0 5 4 0 0 5 5 29 3 0 0 5 4 2 25 0 0 0 0 0 0 0 0 0 0 0 5
44 85 0 0 0 0 0 0 0 0 0 0 0 0 0 0 0 0 2 3 0 0 0 6 25 19 0 0 4 4 3 5 4 0 0 0 0 0 0 0 0 0 0 0
4 69 7 0 0 0 0 4 0 0 0 0 0 0 0 0 0 0 0 0 0 0 0 5 5 79 10 1 0 71 92 23 4 5 0 0 0 0 0 0 0 0 0 0
19 96 72 5 0 0 0 0 0 0 0 0 0 0 0 0 0 0 0 0 2 0 0 5 5 89 95 1 0 0 0 2 2 2 5 5 0 0 0 0 0 0 0 0
47 61 100 4 0 1 1 0 0 0 7 0 0 0 0 0 0 0 0 0 0 0 8 3 69 5 5 43 0 0 0 2 0 5 5 4 0 0 0 0 0 0 3 0
78 85 86 19 2 4 0 41 70 73 77 5 0 19 0 0 0 0 0 0 0 0 28 8 61 56 0 3 24 0 0 0 0 1 0 1 0 0 0 0 0 0 0 0
59 100 100 64 31 5 5 12 92 70 38 22 0 85 0 0 0 0 0 0 0 0 0 5 5 65 86 4 4 4 2 0 0 0 0 0 0 0 0 0 0 0 0 0
100 100 100 85 5 5 1 0 70 24 5 5 0 4 0 0 0 0 0 0 0 0 0 0 4 6 70 1 5 5 0 0 0 0 0 0 0 0 0 0 0 0 0 0
100 100 100 14 39 79 61 5 50 18 5 5 2 6 0 0 3 65 80 100 42 0 0 0 3 55 5 3 4 4 0 0 0 0 0 0 0 0 0 0 0 0 0 0
100 100 100 86 94 100 14 5 5 5 5 5 2 1 0 0 3 26 85 100 98 27 0 0 5 5 20 90 3 1 5 0 0 0 0 0 0 0 0 0 0 0 0 0
100 100 100 100 100 98 100 100 95 82 57 50 82 13 5 0 0 0 100 100 100 99 0 1 2 4 5 1 5 0 5 3 0 0 0 0 0 0 0 0 0 0 9 0
100 100 100 100 100 100 56 86 76 17 92 100 100 96 16 0 6 94 100 100 100 96 6 0 5 0 5 70 5 5 5 3 0 0 0 0 0 0 0 0 0 0 2 12
100 100 100 100 100 100 94 100 20 97 43 100 100 100 81 46 96 100 100 100 100 100 53 0 2 58 95 82 100 5 89 3 1 2 0 0 0 0 0 0 3 5 5 4
100 100 100 100 100 100 84 21 92 95 100 100 100 100 100 100 100 100 100 100 100 100 97 98 100 38 27 56 68 93 80 5 5 5 5 0 4 5 5 1 42 99 84 30
100 100 100 100 100 100 100 64 28 92 100 100 100 100 100 100 100 100 100 100 100 99 100 98 40 18 1 3 5 35 6 71 100 97 96 2 0 9 68 15 8 8 9 20
100 100 100 100 100 100 100 100 100 100 100 100 100 100 100 100 100 100 100 100 100 100 100 60 73 36 21 27 100 78 11 4 40 77 99 100 88 0 1 18 100 15 100 94
100 100 100 100 100 100 100 100 100 100 100 100 100 100 100 100 100 100 89 59 92 100 100 48 75 60 27 30 100 100 96 76 92 100 100 80 100 73 100 67 55 58 83 100
100 100 100 100 100 100 100 100 100 100 100 100 100 100 100 100 100 100 89 6 92 100 100 75 94 73 26 5 23 18 45 51 13 35 5 60 22 95 82 56 95 100 100 100

GFSCGP_prec_cloud_045.txt.gz
Cloud_Cover
0 0 0 0 0 0 0 0 5 52 5 5 88 18 77 5 5 5 0 5 3 0 0 0 0 0 0 0 0 0 0 0 0 3 0 0 0 0 0 0 0 0 0 0
0 0 0 0 0 0 0 0 0 97 37 9 15 5 41 5 5 5 5 5 1 6 1 0 0 0 0 0 0 0 0 0 0 0 0 0 0 0 0 0 0 0 0 0
0 0 0 0 0 0 0 0 0 12 17 81 5 4 5 30 24 5 3 3 4 12 50 0 0 0 0 0 0 0 0 0 0 0 0 0 0 0 0 0 0 4 0 0
0 0 0 0 0 0 0 0 0 0 8 35 48 1 5 13 50 2 0 0 0 5 4 1 0 0 1 0 0 0 0 0 0 0 0 0 0 0 0 0 1 4 1 0
0 0 0 0 0 0 0 0 0 0 0 5 6 11 0 5 2 4 0 0 2 0 0 2 1 0 0 1 0 0 0 0 0 0 0 0 0 0 0 0 0 5 0 0
0 0 0 0 0 0 0 0 0 0 0 3 1 5 0 0 2 5 3 0 3 5 4 5 4 1 0 0 0 1 0 0 0 0 0 0 0 0 0 0 0 0 1 1
0 0 0 0 0 0 0 0 0 0 0 0 0 2 0 0 0 0 0 1 4 5 4 4 2 2 0 5 4 2 0 1 0 0 0 0 0 0 0 0 0 4 0 3
0 0 0 0 0 0 0 0 0 0 0 0 0 0 0 0 0 0 0 23 97 5 5 5 4 3 7 1 2 0 0 3 0 0 0 0 0 0 0 0 0 0 0 1
0 0 0 0 0 0 0 0 0 0 0 0 0 0 0 0 0 0 0 42 27 57 5 3 3 5 5 0 0 0 0 5 5 9 0 0 0 0 0 0 0 0 0 5
4 0 0 0 0 0 0 0 0 0 0 0 0 0 0 0 0 0 0 5 68 100 15 5 4 5 12 1 0 0 0 0 2 9 32 0 0 0 0 0 0 0 0 0
0 1 0 0 0 0 0 0 0 0 0 0 0 0 0 0 0 0 0 2 15 8 22 5 5 4 4 0 0 0 0 0 5 0 5 1 0 0 0 0 0 0 0 0
4 46 7 0 0 0 0 0 0 8 2 0 0 0 0 0 0 0 0 6 13 68 17 5 5 5 3 0 0 0 0 0 5 2 3 1 2 0 0 0 0 0 0 0
5 27 0 0 0 0 0 0 0 0 0 3 0 0 0 0 0 0 0 55 13 68 79 49 33 7 5 5 0 0 0 0 0 8 11 43 6 5 0 0 0 0 0 0
2 30 1 0 0 13 12 0 0 0 29 25 35 0 0 0 4 0 0 3 2 4 8 12 94 32 41 5 5 0 0 0 0 0 0 7 50 4 3 0 0 0 0 0
5 7 8 5 1 7 5 5 0 0 1 48 9 38 0 0 0 0 0 0 0 0 5 4 9 10 16 17 3 4 0 0 0 0 0 0 4 5 3 0 0 0 0 0
14 4 61 4 0 1 5 5 0 2 0 0 5 56 0 0 0 0 0 0 0 0 5 5 5 5 5 5 5 4 3 0 0 0 0 0 0 0 0 0 0 0 0 0
44 56 47 1 32 97 64 5 0 0 0 0 2 1 0 0 0 1 0 0 0 0 0 3 3 5 6 5 1 3 3 1 0 0 0 0 0 0 0 0 0 0 0 0
90 98 76 14 100 100 5 38 0 92 21 0 2 0 0 0 4 40 67 66 19 0 0 0 0 5 98 3 9 17 26 0 0 0 0 0 0 0 0 0 0 0 0 0
90 92 97 100 100 91 11 98 59 73 0 5 0 0 0 24 53 30 98 100 100 100 89 0 0 1 12 67 75 53 5 0 0 0 0 0 0 0 0 0 0 0 0 0
98 91 100 100 100 100 100 100 15 32 36 21 17 33 1 0 0 38 100 100 100 100 95 0 0 0 0 10 33 97 35 0 0 0 0 0 0 0 0 0 0 0 0 0
100 100 100 100 100 100 100 100 51 60 48 100 100 100 100 75 84 100 100 100 100 100 96 0 0 0 0 1 91 99 5 1 2 0 0 0 0 0 0 0 0 1 8 0
100 100 100 100 100 100 100 100 98 64 98 100 100 100 100 100 100 100 100 100 100 100 99 9 0 0 0 16 100 90 7 81 4 0 0 0 0 0 0 0 0 0 4 17
100 100 100 100 100 100 100 100 88 100 100 100 100 100 100 100 100 100 100 100 100 100 100 99 34 5 0 65 76 5 11 9 4 0 0 0 0 0 0 0 2 14 31 0
100 100 100 100 100 100 100 100 100 100 100 100 100 100 100 100 100 100 100 100 100 100 100 100 89 81 68 99 99 85 16 96 5 0 2 0 0 0 0 0 0 0 0 13
100 100 100 100 100 100 100 100 100 100 100 100 100 100 100 100 100 100 100 100 100 100 100 100 100 98 100 79 47 69 100 64 43 96 64 5 56 1 0 5 14 5 4 21
100 100 100 100 100 100 100 100 100 100 100 100 100 100 100 100 100 100 100 100 100 100 100 100 100 97 93 66 84 33 71 2 45 60 19 100 94 78 4 12 37 100 91 100

GFSCGP_prec_cloud_048.txt.gz
Cloud_Cover
0 0 0 0 0 0 0 0 0 5 84 100 91 100 8 3 0 0 0 0 3 0 0 0 0 0 0 0 0 0 0 0 0 0 0 0 0 0 0 0 0 0 0 0
0 0 0 0 0 0 0 0 0 5 99 11 100 42 56 5 5 0 0 0 0 0 0 0 0 0 0 0 0 0 0 0 0 0 0 0 0 0 0 1 0 0 0 0
0 0 0 0 0 0 0 0 0 18 5 5 42 100 100 10 5 2 1 0 0 0 0 0 0 0 0 0 0 0 0 0 0 0 0 0 0 0 0 0 0 0 0 0
0 0 0 0 0 0 0 0 0 0 5 6 3 33 7 34 5 5 1 0 0 0 0 0 0 0 0 0 0 0 0 0 0 0 0 0 0 0 0 0 3 0 0 3
0 0 0 0 0 0 0 0 0 0 4 51 55 31 92 26 5 5 2 0 0 1 4 0 0 0 0 0 0 0 0 0 0 0 0 0 0 0 0 0 3 0 0 0
0 0 0 0 0 0 0 0 0 0 0 25 4 55 5 63 20 5 5 4 0 0 4 0 0 0 0 0 0 0 0 0 0 0 0 0 0 0 0 0 0 0 0 0
0 0 0 0 0 0 0 0 0 0 0 0 0 4 5 63 57 5 5 5 2 5 4 0 5 0 0 0 0 1 0 0 0 0 0 0 0 0 0 0 0 0 0 0
0 0 0 0 0 0 0 0 0 0 0 0 0 0 0 0 1 5 59 5 5 5 5 2 1 0 0 0 0 0 2 2 0 0 0 0 0 0 0 0 0 0 0 0
0 0 0 0 0 0 0 0 0 2 5 0 0 0 0 0 0 0 5 5 1 0 5 5 2 0 0 0 0 0 0 2 4 0 0 0 0 0 0 0 0 0 0 0
0 0 0 0 0 0 0 0 21 1 20 0 0 0 0 0 0 0 4 18 4 0 60 5 5 0 0 0 0 0 0 0 2 0 0 0 0 0 0 0 0 0 0 0
0 0 0 0 0 0 0 0 28 52 1 0 2 0 0 0 0 0 0 0 0 0 5 18 7 5 3 0 0 0 0 0 0 0 0 0 0 0 0 0 0 0 0 0
2 0 0 0 0 0 0 0 0 7 6 0 17 45 3 0 0 0 0 0 0 3 46 60 5 49 4 0 0 0 0 0 0 0 0 0 0 0 0 0 0 0 0 0
5 0 0 0 0 0 0 0 0 1 18 77 43 4 0 3 0 0 0 0 0 4 94 48 6 5 5 0 4 1 0 0 0 0 4 1 0 0 0 0 0 0 0 0
5 0 0 0 0 6 0 0 0 5 4 0 32 100 81 1 0 0 0 0 0 4 9 5 5 5 5 2 0 0 0 0 0 0 4 5 5 5 0 0 0 0 0 0
58 18 5 1 0 0 0 0 0 4 5 1 3 98 28 43 0 0 0 0 0 0 45 5 5 5 5 35 3 3 0 0 0 0 0 0 1 4 5 5 0 0 0 0
100 55 100 33 5 1 0 0 0 0 5 0 0 0 9 37 0 0 0 0 0 0 63 5 5 5 5 5 5 32 0 0 0 0 0 0 0 0 5 58 55 5 0 0
94 88 98 11 8 0 1 0 0 0 0 0 0 0 0 0 5 0 0 0 0 0 4 5 5 5 5 33 62 5 5 0 0 0 0 0 0 0 0 3 12 7 0 0
94 100 98 5 37 97 0 0 0 0 0 0 0 0 5 5 0 0 0 0 0 0 0 2 4 5 5 5 12 19 5 5 0 4 0 0 0 0 0 0 1 0 0 0
99 100 86 100 7 2 0 0 1 0 0 0 0 0 0 0 0 0 2 4 4 0 0 0 0 0 2 3 10 53 5 0 4 0 0 0 0 0 0 0 0 0 0 0
99 92 96 100 95 65 11 38 74 82 25 18 5 1 0 0 0 43 0 1 1 21 18 4 0 0 0 0 13 78 5 24 5 4 0 0 0 0 0 0 0 0 0 0
88 100 97 57 96 74 100 100 100 100 26 30 12 32 16 5 3 60 63 46 52 42 58 8 0 0 0 4 4 5 8 8 67 5 0 0 0 0 0 0 0 0 0 0
100 100 100 100 100 100 100 100 100 100 86 95 100 100 78 45 49 86 100 100 94 98 80 0 0 0 0 2 4 5 34 100 49 7 0 0 0 0 0 0 0 0 0 0
100 100 100 100 100 100 100 100 100 100 100 100 100 86 94 100 100 93 100 100 100 100 100 49 0 0 0 0 3 5 73 53 100 62 0 0 0 0 0 0 8 2 9 0
100 100 100 100 100 100 100 100 100 100 100 100 100 100 99 100 97 100 100 100 100 100 100 100 100 91 78 43 9 4 8 50 93 94 2 0 15 7 0 0 0 0 0 0
100 100 100 100 100 100 100 100 100 100 100 100 100 100 100 100 100 100 100 100 100 100 100 100 100 100 100 100 100 100 86 16 87 27 11 19 14 30 45 42 13 15 0 18
100 100 100 100 100 100 100 100 100 100 100 100 100 100 100 100 81 100 100 100 100 100 100 100 100 100 100 100 100 100 100 92 12 12 5 3 4 56 92 96 64 91 84 100

GFSCGP_prec_cloud_051.txt.gz
Cloud_Cover
0 0 0 0 0 0 0 0 0 4 23 15 10 100 100 100 72 0 2 33 97 5 44 24 11 0 0 0 0 0 0 0 0 0 0 19 49 100 98 100 58 0 10 1
0 0 0 0 0 0 0 0 0 0 56 43 55 99 100 66 1 0 0 0 0 1 15 27 6 0 0 0 0 0 0 0 0 0 0 3 19 40 93 70 1 21 34 1
0 0 0 0 0 0 0 0 0 1 5 6 45 28 86 100 3 2 0 0 0 0 0 6 13 1 0 0 0 0 0 0 0 0 0 2 0 38 8 99 6 15 37 21
0 0 0 0 0 0 0 0 0 0 9 5 6 59 5 94 97 0 0 0 0 0 0 0 3 2 0 0 0 0 0 0 0 0 0 0 0 0 0 23 47 36 0 27
0 0 0 0 0 0 0 0 0 0 0 1 41 55 99 12 59 86 2 0 0 0 0 0 0 0 0 0 0 0 0 0 0 0 0 0 0 0 0 12 63 30 1 0
0 3 0 0 0 0 0 0 0 0 0 0 0 37 5 100 63 97 25 19 0 0 0 0 0 0 3 4 0 0 0 0 0 0 0 0 0 0 0 0 12 0 7 0
0 0 0 0 0 0 0 0 0 0 0 0 0 0 2 79 39 100 57 5 1 0 0 0 0 0 0 0 0 0 0 0 0 0 0 0 0 0 0 0 0 0 1 13
0 0 0 0 0 0 0 0 0 0 0 0 0 0 0 5 71 77 100 14 13 0 0 0 0 0 0 0 0 0 0 0 0 0 0 0 0 0 0 0 0 0 0 0
0 0 0 0 0 0 5 26 0 0 4 0 0 0 0 0 3 83 98 83 99 21 0 0 5 0 0 0 0 0 0 0 0 0 0 0 0 0 0 0 0 0 0 1
0 0 0 0 0 0 0 0 16 2 10 2 12 1 0 0 0 0 12 7 20 100 10 0 5 0 0 0 0 0 0 0 0 0 0 0 0 0 0 0 0 0 0 0
0 0 0 0 0 0 0 0 2 94 26 2 6 5 5 4 0 0 0 1 2 35 29 0 3 2 4 1 0 0 0 0 0 0 0 0 0 0 0 0 0 0 0 0
0 0 0 0 0 0 0 0 0 4 5 5 2 5 53 88 20 0 0 5 4 6 97 5 2 5 5 5 1 0 0 0 0 0 0 0 0 0 0 0 0 0 0 0
8 0 0 0 0 0 0 0 0 2 16 69 13 3 49 100 31 1 0 0 2 6 8 7 40 1 5 1 5 0 0 0 0 0 0 0 0 0 0 0 0 0 0 0
4 6 5 0 46 0 0 0 0 0 14 27 100 100 97 98 95 76 0 0 1 5 100 55 3 0 5 5 5 1 0 0 0 0 0 0 0 0 0 0 0 0 0 0
39 12 3 1 2 0 0 0 0 0 0 32 36 97 28 100 100 91 4 2 0 3 3 43 5 8 5 5 5 5 0 4 0 0 0 0 0 0 0 0 0 0 0 0
100 100 100 99 72 2 0 0 0 0 0 0 2 22 41 100 68 42 26 100 6 0 0 40 14 20 5 5 3 5 2 2 0 0 0 0 0 0 0 0 5 1 0 0
99 100 100 79 100 97 39 0 0 0 0 0 0 0 0 5 8 70 54 28 71 7 0 0 0 0 0 5 2 2 5 3 0 0 0 0 0 0 0 0 0 4 5 2
98 100 100 58 100 100 99 10 1 0 0 0 0 0 0 8 91 99 100 99 45 17 5 0 0 0 0 1 3 2 5 5 4 0 0 0 0 0 0 0 0 0 0 5
100 99 100 94 99 33 98 100 8 2 2 0 0 0 0 0 16 100 100 47 5 1 0 0 0 0 4 5 1 0 5 5 5 0 0 0 0 0 0 0 0 0 0 0
100 100 100 99 93 75 5 92 100 2 0 0 0 0 0 0 0 0 11 5 0 0 0 0 0 0 5 5 5 1 2 5 5 0 0 0 0 0 0 0 0 0 0 0
100 100 86 8 12 45 30 94 22 98 4 0 5 0 0 0 0 1 0 3 0 1 0 0 0 0 4 20 5 2 0 0 5 5 0 2 0 0 0 0 0 0 0 0
100 100 100 100 100 100 46 10 5 2 0 21 80 14 0 8 1 2 0 0 4 13 0 0 0 0 0 0 0 5 5 4 5 1 5 5 5 4 0 0 0 0 0 0
100 100 100 100 100 100 100 100 100 76 100 99 100 83 1 52 88 90 3 62 80 91 56 13 32 0 0 0 0 5 5 5 5 4 5 5 4 5 0 0 2 0 0 0
100 100 100 100 100 100 100 100 100 100 100 100 100 78 100 96 97 77 100 100 100 100 100 100 90 61 7 0 0 5 5 5 5 5 28 5 51 2 0 31 60 2 0 1
100 100 100 100 100 100 100 100 100 100 100 100 100 100 100 100 100 100 100 100 100 100 100 100 100 100 100 84 9 44 15 0 5 2 2 5 82 22 23 54 31 8 33 12
100 100 100 100 100 100 100 100 100 100 100 100 100 100 100 100 100 100 100 100 100 100 100 100 100 100 100 100 97 43 100 88 4 8 0 7 28 100 82 38 0 85 66 100

GFSCGP_prec_cloud_054.txt.gz
Cloud_Cover
0 0 0 0 0 0 0 0 0 0 2 68 5 22 71 63 100 100 100 100 58 46 63 47 4 0 20 0 0 0 54 1 0 0 0 12 22 21 0 94 100 0 90 100
0 0 0 0 0 0 0 0 0 0 12 54 98 16 97 96 100 100 100 30 18 37 1 43 5 0 7 0 0 0 5 2 0 0 0 10 74 0 5 100 54 0 42 1
0 0 0 0 0 0 0 0 0 0 5 60 69 83 47 75 95 100 38 2 24 0 1 0 0 0 0 0 0 0 0 0 0 0 0 0 100 52 92 36 0 0 32 8
0 0 0 0 0 0 0 0 0 0 1 5 8 28 21 74 100 100 100 100 0 1 0 0 0 0 0 0 0 0 0 0 0 0 0 0 0 80 0 3 70 0 0 88
0 0 0 0 0 0 0 0 0 0 0 5 61 3 4 98 64 100 100 90 2 0 0 0 0 0 0 0 0 0 0 0 0 0 0 0 0 0 80 0 88 16 0 10
0 0 0 0 0 0 0 0 0 0 0 0 0 0 1 85 98 100 100 100 95 0 0 0 0 0 0 0 0 0 0 0 0 0 0 0 0 0 21 12 100 24 0 4
0 0 1 1 0 0 0 0 0 0 0 0 0 0 0 11 99 96 100 100 100 14 0 0 0 0 0 0 0 0 0 0 0 0 0 0 0 0 0 1 96 64 0 0
0 0 0 0 0 0 0 0 0 0 0 0 0 0 0 0 10 46 100 100 54 58 0 0 0 0 0 0 0 0 0 0 0 0 0 0 0 0 0 0 0 36 0 38
0 0 0 0 0 0 0 25 0 0 0 0 0 0 0 0 3 84 100 35 99 88 95 0 0 0 0 0 0 0 0 0 0 0 0 0 0 0 0 0 0 0 0 28
0 0 0 2 0 0 0 0 56 1 0 0 1 0 0 0 0 3 27 5 96 100 100 85 8 1 0 0 0 0 0 0 0 0 0 0 0 0 0 0 0 0 0 8
0 0 0 11 0 0 0 0 5 15 44 0 1 0 0 53 1 0 0 32 94 100 100 100 100 68 5 4 0 0 0 0 0 0 0 0 0 0 0 0 0 0 0 0
0 0 0 0 0 0 0 0 0 5 5 6 2 1 0 95 77 0 1 100 72 22 100 100 100 100 92 5 0 0 0 0 0 0 0 0 0 0 0 0 0 0 0 0
3 0 0 0 0 0 0 0 0 0 0 4 1 7 0 96 85 100 82 100 92 6 92 100 100 100 99 0 0 0 0 0 0 0 0 0 0 0 0 0 0 0 0 0
5 0 2 3 8 10 4 0 0 0 0 0 2 56 0 100 100 87 70 7 3 92 96 100 100 86 90 0 0 0 0 0 0 0 0 0 0 0 0 0 0 0 0 0
5 1 2 0 0 34 0 0 0 0 0 2 0 6 0 100 94 99 5 5 4 3 50 100 95 100 100 75 0 0 0 0 0 0 0 0 0 0 0 0 0 0 0 0
69 25 62 78 38 5 4 0 0 0 0 0 0 0 0 100 0 91 52 5 4 0 69 100 40 100 80 22 0 0 0 0 0 0 0 0 0 0 2 0 0 0 0 0
100 72 78 51 89 74 46 22 0 0 0 0 0 0 5 100 30 73 100 100 33 0 1 92 51 83 5 84 28 0 0 0 0 0 0 0 0 0 0 0 0 0 0 0
89 80 99 37 100 100 3 0 36 6 0 0 0 0 0 22 40 34 87 58 100 8 0 13 62 81 100 100 100 100 4 0 0 0 0 0 0 0 0 0 1 0 0 0
100 97 100 64 100 34 7 24 35 100 75 3 0 0 0 23 71 35 100 100 100 72 53 5 0 5 1 26 100 100 0 0 2 0 0 0 0 0 0 0 0 0 0 0
98 100 98 27 98 72 0 9 100 87 4 0 0 0 0 0 60 12 100 99 100 75 100 5 5 2 5 0 0 0 0 0 4 0 1 0 0 0 0 0 0 0 0 0
95 100 77 80 84 22 22 100 100 94 1 0 0 0 0 0 0 55 100 100 50 100 37 100 13 0 3 1 0 0 0 0 0 0 1 5 1 0 0 0 0 0 0 0
100 100 96 73 100 93 80 64 34 5 0 0 0 0 0 0 0 0 100 95 99 98 100 31 11 0 0 0 0 0 0 0 3 3 0 0 0 0 0 1 2 0 0 0
100 100 100 100 100 85 90 98 30 52 2 0 0 0 0 0 0 0 14 9 18 100 96 42 46 29 14 0 5 0 0 1 5 5 0 0 0 0 0 5 1 0 0 0
100 100 100 100 100 100 100 100 100 100 55 35 2 47 34 36 57 48 3 95 100 91 100 100 100 96 41 20 3 0 3 5 5 5 5 3 0 0 2 5 2 0 0 0
100 100 100 100 100 100 100 100 100 100 100 100 100 100 80 100 100 56 68 99 100 100 100 100 100 100 99 72 88 38 11 5 1 1 5 5 4 0 0 0 5 0 0 2
100 100 100 100 100 100 100 100 100 100 100 100 100 100 100 95 100 100 100 100 100 100 100 100 100 100 100 100 100 80 53 38 0 0 2 5 5 0 0 0 57 92 79 100

GFSCGP_prec_cloud_057.txt.gz
Cloud_Cover
0 0 0 0 0 0 0 0 0 0 17 5 4 54 16 77 42 100 100 100 93 13 1 7 100 72 68 0 0 0 0 0 0 0 0 0 0 0 0 0 67 42 1 1
0 0 0 0 0 0 0 0 0 0 0 5 72 25 100 26 24 84 100 100 100 99 83 100 80 99 22 0 0 0 0 0 0 0 0 0 0 0 0 0 0 1 4 4
0 0 0 0 0 0 0 0 0 0 0 2 6 57 63 24 35 61 100 100 100 100 100 99 89 6 0 0 0 0 0 0 0 0 0 0 0 0 0 0 0 0 0 0
0 0 0 0 0 0 0 0 0 0 0 0 4 96 97 5 55 40 100 100 100 100 100 54 69 0 0 0 0 0 0 0 0 0 0 0 0 0 0 0 0 0 0 3
0 0 0 0 0 0 0 0 0 0 0 0 0 16 76 55 88 100 100 100 100 100 100 38 0 0 0 0 0 0 0 0 0 0 0 0 0 1 0 0 33 0 1 5
0 0 0 0 0 0 0 0 0 0 0 0 0 0 4 88 15 80 100 100 100 100 100 86 0 0 0 0 0 0 0 0 0 0 0 0 0 0 16 0 7 47 3 7
0 0 0 0 0 0 0 0 0 0 0 0 0 0 0 0 1 18 100 100 100 100 100 41 0 0 0 0 0 0 0 0 0 0 0 0 0 0 0 0 0 100 20 1
0 0 0 0 0 0 0 0 0 0 0 0 0 0 0 0 0 5 100 100 100 100 100 45 0 0 0 0 0 0 0 0 0 0 0 0 0 0 0 0 0 59 19 0
0 0 0 0 0 0 0 0 0 0 0 0 0 0 0 0 0 0 30 100 100 100 100 88 22 0 0 0 0 0 0 0 0 0 0 0 0 0 0 0 0 0 9 0
0 0 0 0 0 0 0 0 0 0 0 0 0 0 0 1 0 0 0 98 100 100 98 86 10 2 5 1 0 0 0 0 0 0 0 0 0 0 0 0 0 0 0 0
0 0 0 0 0 0 0 0 1 0 0 0 0 0 0 4 88 100 82 100 79 77 96 100 100 100 2 58 11 0 0 0 0 0 0 0 0 0 0 0 0 0 0 0
0 0 1 0 0 0 0 0 2 5 0 0 0 0 0 92 100 27 60 100 100 97 100 100 100 100 100 17 5 4 0 0 0 0 0 0 0 0 0 0 0 0 0 0
0 0 0 4 0 2 0 0 0 0 1 0 11 0 0 50 100 93 100 100 92 100 100 100 100 100 100 95 20 19 5 2 0 0 0 0 0 0 0 0 0 0 0 0
0 0 0 0 0 10 0 0 0 0 4 0 5 0 0 74 100 100 100 98 31 44 100 100 100 100 100 85 93 100 32 5 0 0 0 0 0 0 0 0 0 0 0 0
3 2 0 0 0 0 0 0 0 0 0 0 0 0 0 100 100 97 100 100 100 100 69 100 100 100 100 96 93 100 92 5 0 0 0 0 0 0 0 0 0 0 0 0
5 0 1 0 0 0 0 0 0 0 0 0 0 0 0 3 96 86 81 99 100 100 56 64 100 100 100 100 100 100 100 100 30 0 0 0 0 0 0 0 0 0 0 0
4 5 3 1 3 4 1 0 0 0 0 0 0 0 0 0 1 13 97 100 100 100 67 67 98 100 100 100 100 100 100 41 87 5 4 0 0 0 0 0 0 0 0 0
92 5 100 15 95 51 0 2 0 0 0 0 0 0 0 0 0 4 5 88 100 100 100 5 30 98 100 100 100 100 100 100 79 55 42 0 0 0 0 0 0 0 0 0
99 100 70 84 78 1 0 0 2 0 0 0 0 0 0 0 0 0 35 80 94 70 95 2 0 100 100 100 100 100 100 100 100 100 100 84 0 0 0 0 0 0 0 0
64 68 87 100 96 4 0 24 86 95 0 0 3 0 0 0 0 0 38 27 100 100 90 5 0 43 100 100 100 100 100 100 100 100 100 96 4 0 0 0 0 0 0 0
100 95 46 96 100 52 20 11 91 39 6 0 0 0 0 0 0 0 17 100 100 100 67 9 16 4 94 98 44 83 100 100 100 100 100 84 16 4 0 0 0 0 0 0
100 100 100 100 100 87 31 8 64 73 0 7 0 0 0 0 0 0 0 84 100 98 100 91 6 17 24 85 70 100 100 100 100 100 100 52 3 5 4 0 0 0 0 0
100 100 100 100 100 41 30 55 17 28 93 62 63 3 0 0 0 0 0 7 100 10 7 100 98 74 21 5 5 54 100 100 100 99 89 91 5 2 5 0 0 0 0 0
100 100 100 100 100 82 47 95 67 19 98 26 0 28 95 67 0 0 0 0 20 49 5 92 100 100 53 85 28 71 95 100 100 100 100 88 1 0 0 0 0 0 0 0
95 98 100 100 99 100 100 100 100 100 100 100 100 34 0 33 2 1 11 30 76 69 85 100 100 100 99 100 79 95 70 74 48 3 4 17 0 0 0 0 0 0 0 0
100 100 100 100 100 100 100 100 100 100 100 100 100 100 100 100 96 90 81 100 100 92 94 98 78 100 44 100 93 82 100 100 100 86 0 0 0 0 0 0 47 100 86 91

GFSCGP_prec_cloud_060.txt.gz
Cloud_Cover
0 0 0 0 0 0 0 0 0 0 5 54 11 12 27 25 100 40 87 7 100 100 100 100 100 70 100 96 0 0 0 0 0 0 4 8 5 0 0 2 5 0 0 47
0 0 0 0 0 0 0 0 0 0 0 0 0 25 38 7 62 99 42 15 100 100 100 100 100 100 100 51 0 0 0 0 0 0 0 0 0 0 0 1 5 5 1 2
0 0 0 0 0 0 0 0 0 0 0 0 0 47 67 84 5 18 6 67 100 100 100 100 100 99 97 18 0 0 0 0 0 0 0 0 0 0 0 0 0 0 0 0
0 0 0 0 0 0 0 0 0 0 0 0 0 2 65 48 56 17 9 96 100 100 100 100 100 100 84 97 0 0 0 0 0 0 0 0 0 0 0 0 0 0 0 0
0 0 0 0 0 0 0 0 0 0 0 0 0 18 80 8 54 76 66 100 100 100 100 100 85 100 81 0 0 0 0 0 0 0 0 0 0 0 0 0 0 0 1 0
0 0 0 0 0 0 0 0 0 0 0 0 0 0 32 7 2 19 7 100 100 100 100 100 100 100 24 16 0 0 0 0 0 0 0 0 0 0 0 0 0 0 0 5
0 0 0 0 0 0 0 0 0 0 0 0 0 0 0 1 2 1 19 29 100 96 73 36 4 80 0 0 0 0 0 0 0 0 0 0 0 0 0 0 0 0 0 18
0 0 0 0 0 0 0 0 0 0 0 0 0 0 0 1 9 4 5 32 100 94 82 97 18 2 4 0 0 0 0 0 0 0 0 0 0 0 0 0 0 0 8 0
0 0 0 0 0 0 0 0 0 0 0 0 0 0 0 5 5 1 0 24 89 99 100 100 100 6 0 0 0 0 0 0 0 0 0 0 0 0 0 0 0 0 0 0
0 0 0 0 0 0 0 0 0 0 0 0 0 0 0 0 0 0 0 0 2 77 100 100 100 100 3 0 0 0 0 0 0 0 0 0 0 0 0 0 0 0 0 11
0 0 0 0 0 0 0 0 0 0 0 0 0 0 0 0 0 0 0 0 0 81 99 98 93 71 29 2 0 0 0 0 0 0 0 0 0 0 0 0 0 0 0 0
0 4 5 1 0 0 0 0 0 0 0 0 0 0 0 0 1 0 0 0 0 100 100 100 100 100 15 1 46 68 0 0 0 0 0 0 0 0 0 0 0 0 0 0
0 0 0 0 1 0 0 0 0 0 0 0 2 0 0 0 4 5 0 0 0 52 100 100 100 84 70 11 47 100 0 0 0 0 0 0 0 0 0 0 0 0 0 0
23 0 0 2 1 4 0 0 0 0 0 0 3 73 0 0 5 3 3 0 0 2 87 100 100 100 100 92 94 55 1 0 4 2 0 0 0 0 0 0 0 0 0 0
2 30 4 0 0 3 92 13 0 0 0 0 0 51 2 0 5 3 28 0 0 0 73 100 100 100 99 100 99 100 99 5 32 5 0 0 0 0 0 0 0 0 0 0
1 0 5 5 0 0 1 70 60 0 0 0 0 1 0 4 0 1 2 4 0 0 100 100 100 100 100 94 58 100 100 51 5 5 2 0 0 0 0 0 0 0 0 0
0 0 5 3 0 0 0 0 95 7 1 0 0 0 0 4 0 2 2 77 5 3 100 100 100 100 99 92 98 100 98 100 100 100 100 50 0 0 0 0 0 0 0 0
0 3 51 40 5 16 0 0 0 2 61 4 0 0 0 0 5 3 23 40 86 26 100 100 100 100 100 100 99 47 34 100 98 100 100 100 84 0 0 0 0 0 0 0
26 5 88 92 5 1 0 0 0 0 0 2 0 0 0 0 0 0 51 100 100 96 98 100 100 100 100 99 100 98 100 100 100 100 100 55 100 0 4 37 0 0 0 0
64 67 5 89 46 47 64 0 0 0 0 12 4 0 0 22 0 0 2 100 100 100 95 87 100 98 100 100 100 100 100 100 100 100 100 100 100 100 5 94 100 0 0 0
91 30 80 98 93 70 60 9 23 43 21 0 34 5 3 72 2 0 0 62 100 100 100 62 78 35 100 100 100 100 100 100 100 100 100 100 100 100 96 100 100 88 0 0
53 96 21 100 91 92 62 88 72 21 27 87 60 46 66 86 49 0 0 0 72 100 100 99 98 24 99 100 100 100 100 100 100 100 100 100 100 100 100 100 100 97 0 0
100 92 94 83 5 21 5 36 46 94 100 100 100 100 100 100 99 1 0 0 0 39 100 100 100 98 81 100 100 100 100 58 100 100 100 100 100 100 100 100 100 100 9 0
100 72 88 80 97 72 21 28 90 100 100 100 100 100 98 100 88 6 0 0 0 0 2 99 100 100 99 99 100 100 76 100 100 100 100 100 100 100 100 100 81 53 1 0
37 76 100 99 50 100 100 100 100 100 99 100 100 100 100 100 80 38 75 30 58 51 0 3 23 68 96 92 97 72 91 100 100 100 100 100 100 100 100 100 100 27 3 0
27 76 71 100 92 100 100 100 100 100 100 100 100 100 100 100 100 100 100 100 23 0 4 29 10 100 48 99 100 32 100 100 100 100 100 98 97 100 100 100 100 100 86 54

GFSCGP_prec_cloud_063.txt.gz
Cloud_Cover
0 0 0 0 0 0 0 0 0 4 4 0 0 2 5 23 84 100 92 65 60 5 10 100 99 100 100 100 100 28 0 0 0 0 0 0 0 0 0 0 1 0 1 1
0 0 0 0 0 0 0 0 0 4 86 5 0 0 0 5 75 68 64 6 5 5 16 100 100 100 100 94 100 24 0 0 0 0 0 0 0 0 0 23 6 1 5 2
0 0 0 0 0 0 0 0 0 25 91 18 0 7 81 7 0 2 8 17 47 6 57 100 74 100 92 100 89 3 0 0 0 0 0 0 0 0 0 45 0 1 1 4
0 0 0 0 0 0 0 0 4 14 12 0 0 0 97 15 12 100 97 5 58 89 100 100 17 100 98 100 100 1 0 0 0 0 0 0 0 0 0 1 0 0 3 1
0 0 0 0 0 0 0 0 1 5 0 0 0 0 0 48 64 100 19 5 5 94 99 94 5 3 24 100 92 0 0 0 0 0 0 0 0 0 0 0 0 0 1 4
0 0 0 0 0 0 0 0 0 0 0 0 0 0 0 79 4 89 3 92 78 39 69 6 10 20 26 77 19 0 3 0 0 0 0 0 0 0 0 0 0 0 0 6
0 0 0 0 0 0 0 0 0 0 0 0 0 0 0 3 0 1 2 9 23 100 100 100 37 74 1 11 0 0 0 0 0 0 0 0 0 0 0 0 0 0 0 2
0 0 0 0 0 0 0 0 0 0 0 0 0 0 0 0 0 0 9 6 7 100 98 94 5 4 5 4 0 0 0 0 0 0 0 0 0 0 0 0 0 0 0 1
0 0 0 0 0 0 0 0 0 0 0 0 0 0 0 0 0 0 1 0 21 97 100 93 8 6 5 8 0 0 0 0 0 0 0 0 0 0 0 0 0 0 0 0
0 0 0 0 0 0 0 0 0 0 0 0 0 0 0 0 0 0 0 0 4 51 58 93 47 20 5 8 1 0 0 0 0 0 0 0 0 0 0 0 0 0 0 4
4 4 2 0 0 0 0 0 0 0 0 0 0 0 0 0 0 0 0 0 0 0 74 100 96 4 23 5 0 0 0 0 0 0 0 0 0 0 0 0 0 0 0 8
2 81 100 55 3 0 0 0 0 0 0 0 0 0 0 0 0 0 0 0 0 0 1 100 100 100 100 59 4 1 0 0 0 0 0 0 0 0 0 0 0 0 0 0
0 0 5 5 5 0 0 0 0 0 0 0 0 0 0 0 0 0 0 0 1 0 0 6 100 100 100 100 10 0 0 0 0 0 0 0 0 0 0 0 0 0 0 0
5 2 5 3 3 4 0 0 0 3 0 0 0 0 0 0 0 0 0 0 9 78 97 58 68 100 100 100 98 30 1 0 0 0 0 0 0 0 0 0 0 0 0 0
1 7 5 5 0 0 4 5 1 0 0 0 0 0 2 0 0 0 0 0 0 49 100 100 100 100 100 97 100 94 0 0 0 0 0 0 0 0 0 0 0 0 0 0
5 0 5 64 10 0 0 2 4 5 1 0 0 0 3 4 0 0 0 0 0 0 92 100 100 100 100 100 100 86 0 6 0 0 0 0 0 0 0 0 0 0 0 0
0 0 2 4 59 11 3 0 14 65 5 0 0 0 0 3 1 0 0 0 0 0 0 91 100 100 100 95 93 25 46 100 95 0 3 0 0 0 0 0 0 0 0 0
0 0 0 4 0 4 4 5 1 19 72 5 0 0 0 0 0 0 0 0 0 4 0 10 99 100 100 100 100 53 12 100 100 94 3 0 0 0 0 0 0 0 0 0
0 0 2 5 30 1 0 0 0 0 2 60 8 7 20 0 0 0 0 0 0 3 3 0 71 100 100 100 100 73 64 87 100 100 79 38 5 4 0 0 0 0 0 0
5 5 5 60 14 44 3 4 0 0 51 0 5 8 80 86 0 0 0 0 0 10 27 5 12 100 95 92 100 100 91 100 27 59 47 72 82 56 62 1 0 0 0 0
45 20 45 97 93 30 6 4 4 15 30 25 65 67 71 100 43 0 0 0 0 26 98 54 73 76 87 100 86 97 100 100 100 86 87 99 100 60 97 40 16 100 100 14
45 84 73 100 76 41 8 11 5 6 5 49 100 100 100 100 100 100 15 20 0 0 14 99 63 99 100 100 74 35 100 100 100 100 88 85 97 90 100 100 100 100 100 100
48 8 13 5 5 5 4 3 39 100 100 97 100 100 100 100 100 100 15 75 37 0 2 6 100 100 100 100 100 78 99 100 100 100 78 100 99 99 99 64 90 100 100 100
89 49 100 100 100 31 8 5 5 8 47 100 100 100 100 100 100 97 100 100 100 100 60 6 48 94 100 100 100 94 61 100 88 100 100 100 100 100 90 70 100 100 97 100
5 72 97 76 11 87 100 100 14 25 60 97 100 100 100 100 100 100 100 100 100 100 80 13 0 0 80 100 100 100 13 100 100 68 100 100 100 100 100 59 95 98 72 77
25 21 36 23 10 27 5 70 100 100 58 91 100 50 100 100 100 100 100 100 99 96 100 100 55 0 0 66 100 100 100 100 90 65 98 100 100 100 100 100 73 100 100 86

GFSCGP_prec_cloud_066.txt.gz
Cloud_Cover
0 0 0 0 0 0 0 0 0 0 0 0 0 4 5 86 93 100 90 63 5 4 10 41 97 41 55 56 5 98 49 0 0 0 0 0 0 0 0 0 2 5 3 0
0 0 0 0 0 0 0 0 0 9 2 0 0 0 5 93 100 100 85 99 56 65 0 33 4 54 71 77 8 51 14 0 0 1 0 0 0 0 0 0 4 2 3 0
0 0 0 0 0 0 0 0 0 19 5 0 0 0 31 75 7 6 11 100 4 15 0 0 2 99 49 89 5 5 18 0 0 0 0 0 0 0 0 5 0 5 0 0
0 0 0 0 0 0 0 0 0 0 5 4 0 0 0 86 82 50 4 5 4 5 0 4 5 70 56 26 5 5 93 0 0 0 0 0 0 0 0 5 0 1 0 1
0 0 0 0 0 0 0 0 0 0 5 4 0 0 0 13 32 3 2 3 11 5 5 12 80 100 97 4 3 2 13 0 1 0 0 0 0 0 0 0 0 0 0 0
0 0 0 0 0 0 0 0 0 0 4 0 0 0 0 6 0 6 74 51 41 9 0 0 50 100 68 5 0 0 0 0 11 0 0 0 0 0 0 0 0 0 0 0
0 0 0 0 0 0 0 0 0 0 0 0 0 0 0 0 0 5 1 2 40 99 23 7 99 98 36 39 1 0 0 0 11 0 0 0 0 0 0 0 0 0 0 2
0 0 0 0 0 0 0 0 0 0 0 0 0 0 0 0 0 0 0 2 46 69 45 5 84 56 30 99 32 1 0 0 0 0 0 0 0 0 0 0 0 0 0 0
0 0 0 0 0 0 0 0 0 0 0 0 0 0 0 0 0 0 0 0 0 65 84 14 85 78 87 7 0 0 0 0 0 0 0 0 0 0 0 0 0 0 0 0
4 0 0 0 0 0 0 0 0 0 0 0 0 0 0 0 0 0 4 0 0 71 13 98 100 77 5 4 0 0 0 0 0 0 0 0 0 0 0 0 0 0 0 0
41 97 17 0 0 0 0 0 0 0 0 0 0 0 0 0 0 0 100 28 0 67 97 46 52 38 20 98 96 19 5 1 0 0 0 0 0 0 0 0 0 0 0 0
25 100 100 82 3 0 0 0 0 0 0 0 0 0 0 0 0 0 100 100 67 20 96 92 6 100 84 99 99 96 7 50 25 45 3 0 0 0 0 0 0 0 0 0
4 10 33 5 24 2 0 0 0 0 0 0 0 0 0 0 0 46 100 100 78 21 73 34 8 6 100 100 100 100 97 13 62 98 97 94 16 0 0 0 0 0 0 0
5 5 5 3 0 0 0 0 0 0 0 0 0 0 0 0 0 0 43 100 100 100 100 100 100 90 100 100 100 100 100 94 0 1 49 99 94 43 0 0 0 0 0 0
0 4 5 5 1 1 5 5 1 0 0 0 0 0 0 0 0 0 0 74 100 100 100 100 100 100 100 100 96 100 100 100 18 0 0 0 0 21 37 0 0 0 0 0
0 0 26 100 82 5 5 5 5 5 5 0 0 0 0 0 0 0 0 0 0 41 91 100 100 100 100 100 100 100 100 100 100 5 0 0 0 0 0 0 0 0 0 0
5 5 2 14 52 12 5 0 0 2 5 4 0 0 0 0 0 0 0 0 0 0 0 47 100 100 100 100 100 100 100 100 97 90 0 0 0 0 0 0 0 0 0 0
5 4 5 5 1 4 5 4 0 0 0 0 3 0 0 0 0 0 0 0 0 0 0 0 7 99 100 100 100 99 100 100 98 59 1 0 0 1 43 13 0 0 0 0
0 0 5 4 48 0 0 2 5 0 0 15 15 0 0 0 0 0 0 0 0 0 0 0 0 2 100 100 100 100 100 100 100 99 17 16 7 2 4 3 0 0 0 0
5 5 2 10 4 4 4 4 0 0 29 2 12 86 81 9 2 0 0 0 0 0 0 0 0 1 68 100 96 100 95 94 100 100 86 72 93 6 1 1 0 0 0 0
15 9 43 16 27 5 4 3 5 5 5 0 27 60 100 99 61 3 0 0 0 0 0 0 0 0 5 99 100 100 66 100 98 96 93 100 100 57 17 24 0 0 0 0
5 15 80 94 89 32 5 3 3 0 0 3 33 100 100 100 100 100 48 3 0 0 0 0 0 0 5 32 100 88 74 100 100 100 100 100 98 100 37 84 100 94 53 58
51 5 10 5 5 5 2 13 3 0 4 5 65 100 100 100 100 100 100 100 25 10 94 0 0 0 4 9 94 100 100 100 100 100 100 76 100 99 32 53 81 100 100 76
11 6 5 14 3 3 5 7 4 1 3 6 99 100 74 58 98 100 100 100 76 53 100 3 40 68 47 91 34 100 100 100 100 100 100 89 80 100 98 93 92 28 21 83
4 15 37 30 35 5 1 0 0 5 3 5 65 18 6 67 100 100 100 100 94 100 100 95 91 88 35 60 53 100 100 100 100 100 100 100 89 100 100 98 80 100 63 6
9 6 22 8 1 5 4 2 5 9 100 91 10 5 54 95 100 100 100 100 100 100 100 100 12 0 35 3 78 100 100 100 100 99 100 100 100 100 92 90 93 92 100 93

GFSCGP_prec_cloud_069.txt.gz
Cloud_Cover
0 0 0 0 0 0 0 0 0 0 0 0 2 11 96 10 43 74 90 43 100 8 84 84 100 7 100 29 58 0 5 0 0 0 0 0 0 0 0 0 5 2 0 0
0 0 0 0 0 0 0 0 0 0 0 0 0 4 76 24 91 100 28 22 5 5 58 43 99 5 98 45 17 3 4 39 0 0 0 0 0 0 0 0 5 5 1 0
0 0 0 0 0 0 0 0 0 0 0 2 0 1 5 5 100 100 64 82 9 11 0 4 47 2 18 20 4 3 3 66 0 0 0 0 0 0 0 0 4 5 0 0
0 0 0 0 0 0 0 0 0 0 5 5 0 0 5 5 91 100 90 85 58 100 61 0 2 0 96 62 5 6 1 2 0 0 0 0 0 0 0 0 5 2 0 0
0 0 0 0 0 0 0 0 0 0 5 0 0 0 0 5 74 99 80 75 59 12 55 0 0 1 100 99 4 7 0 0 0 0 0 0 0 0 0 0 3 4 0 3
0 0 0 0 0 0 0 0 0 0 0 0 0 0 0 0 6 7 6 23 28 5 0 0 0 5 39 90 4 2 0 0 0 0 0 0 0 0 0 0 0 0 0 1
0 0 0 0 0 0 0 0 0 0 0 0 0 0 0 0 0 1 5 5 5 1 0 1 3 4 5 27 5 0 2 0 3 0 0 0 0 0 0 0 0 0 0 0
0 0 0 0 0 0 0 0 0 0 0 0 0 0 0 0 0 3 5 5 21 36 1 21 0 5 5 69 56 5 0 0 0 6 0 0 0 0 0 0 0 0 0 0
0 0 0 0 0 0 0 0 0 0 0 0 0 0 0 0 0 1 23 4 4 5 5 22 60 62 59 89 49 5 2 2 0 0 0 0 0 0 0 0 0 0 0 0
67 0 0 0 0 0 0 0 0 0 0 0 0 0 0 0 0 36 100 41 0 5 100 43 87 76 89 100 58 84 15 0 0 1 0 0 0 0 0 0 0 0 0 0
100 68 0 0 0 0 0 0 0 0 0 0 0 0 0 0 66 78 66 100 88 56 33 100 100 98 74 100 98 11 3 14 34 14 4 0 0 0 0 0 0 0 0 0
100 100 88 5 1 0 0 0 0 0 0 0 0 0 0 0 64 100 100 100 100 100 100 100 83 87 78 92 93 88 25 66 100 99 99 58 58 0 0 0 0 0 0 0
100 100 100 71 14 4 0 0 0 0 0 0 0 0 0 0 0 34 100 100 100 100 89 85 88 100 98 100 100 100 70 36 73 100 100 100 97 17 0 0 0 0 0 0
87 100 100 100 58 5 5 0 0 0 0 0 0 0 0 0 0 0 2 100 100 100 100 100 100 97 100 100 100 82 98 100 100 98 90 90 94 94 88 7 0 0 0 0
1 22 75 66 22 5 0 2 0 0 0 0 0 0 0 0 0 0 0 0 87 100 100 100 100 100 100 100 100 82 100 99 100 100 80 2 0 23 100 98 23 0 0 0
0 0 4 71 74 16 5 21 0 5 3 0 0 0 0 0 0 0 0 0 0 0 92 100 100 100 100 100 100 100 100 100 100 100 100 1 0 0 0 5 98 97 2 0
0 0 0 5 5 5 0 0 2 4 5 5 3 0 0 0 0 0 0 0 0 0 0 27 100 100 100 100 100 100 99 100 100 100 100 100 23 3 0 0 0 0 3 0
5 2 0 0 0 2 3 1 0 0 0 0 0 0 0 0 0 0 0 0 0 0 0 0 5 35 100 100 100 93 96 94 100 100 100 100 100 43 26 28 5 0 0 0
5 5 3 0 0 0 0 0 0 0 12 15 0 0 0 0 0 0 0 0 0 0 0 0 0 0 1 68 100 100 100 100 95 100 100 100 100 98 18 50 18 3 1 0
5 5 4 1 0 0 0 0 0 0 0 31 0 0 0 0 0 0 0 0 0 0 0 0 0 0 0 0 20 74 100 100 99 100 100 100 100 100 100 56 29 50 68 28
4 5 3 5 5 4 0 0 0 3 21 0 1 4 2 1 0 0 0 0 0 0 0 0 0 0 0 0 0 32 100 100 100 93 100 100 100 100 100 24 86 91 84 73
2 5 13 70 39 4 1 4 4 1 0 0 5 5 5 4 5 1 0 0 0 0 0 0 0 0 0 0 0 0 1 82 100 100 93 100 100 99 100 100 12 53 64 70
10 3 4 4 0 0 0 0 0 0 0 1 2 5 5 5 5 5 5 0 4 44 31 44 29 10 0 1 6 0 2 5 46 100 100 99 100 96 100 100 38 6 42 98
4 0 3 3 0 0 5 11 0 0 0 0 4 5 5 29 12 5 10 77 58 99 100 100 100 67 41 2 17 1 0 38 24 25 98 100 84 99 99 100 52 57 8 30
2 16 8 5 28 14 5 55 90 8 4 2 0 4 7 18 11 26 59 97 100 90 100 100 100 100 78 95 25 17 0 4 42 10 89 37 100 99 92 100 98 65 76 32
3 4 3 5 5 5 2 0 2 5 5 5 2 0 2 19 5 13 29 30 15 46 100 100 100 100 81 79 99 13 11 45 98 63 7 100 78 100 73 100 92 100 99 98